Time,TemperatureF,DewpointF,PressureIn,WindDirection,WindDirectionDegrees,WindSpeedMPH,WindSpeedGustMPH,Humidity,HourlyPrecipIn,Conditions,Clouds,dailyrainin,SoftwareType,DateUTC
2013-01-23 00:00:00,69.7,56.5,30.17,NE,43,4.0,7.0,63,0.00,,,0.00,Wunderground v.1.15,2013-01-23 05:00:00,
2013-01-23 00:03:00,69.7,57.0,30.17,NE,48,7.0,8.0,64,0.00,,,0.00,Wunderground v.1.15,2013-01-23 05:03:00,
2013-01-23 00:05:00,69.6,56.4,30.17,NNE,19,6.0,8.0,63,0.00,,,0.00,Wunderground v.1.15,2013-01-23 05:05:00,
2013-01-23 00:08:00,69.6,56.4,30.18,NNW,330,4.0,10.0,63,0.00,,,0.00,Wunderground v.1.15,2013-01-23 05:08:00,
2013-01-23 00:10:00,69.5,55.9,30.18,NNE,12,7.0,12.0,62,0.00,,,0.00,Wunderground v.1.15,2013-01-23 05:10:00,
2013-01-23 00:11:00,69.5,56.3,30.18,North,356,5.0,12.0,63,0.00,,,0.00,Wunderground v.1.15,2013-01-23 05:11:00,
2013-01-23 00:13:00,69.5,55.9,30.18,North,8,5.0,12.0,62,0.00,,,0.00,Wunderground v.1.15,2013-01-23 05:13:00,
2013-01-23 00:14:00,69.5,55.9,30.18,NNE,25,9.0,12.0,62,0.00,,,0.00,Wunderground v.1.15,2013-01-23 05:14:00,
2013-01-23 00:15:00,69.5,55.9,30.18,NNE,16,7.0,12.0,62,0.00,,,0.00,Wunderground v.1.15,2013-01-23 05:15:00,
2013-01-23 00:18:00,69.5,56.3,30.18,NNE,17,5.0,14.0,63,0.00,,,0.00,Wunderground v.1.15,2013-01-23 05:18:00,
2013-01-23 00:19:00,69.5,56.8,30.18,NNE,23,9.0,14.0,64,0.00,,,0.00,Wunderground v.1.15,2013-01-23 05:19:00,
2013-01-23 00:20:00,69.5,56.3,30.18,North,352,10.0,12.0,63,0.00,,,0.00,Wunderground v.1.15,2013-01-23 05:20:00,
2013-01-23 00:23:00,69.5,56.3,30.18,ENE,59,4.0,13.0,63,0.00,,,0.00,Wunderground v.1.15,2013-01-23 05:23:00,
2013-01-23 00:24:00,69.5,56.3,30.17,NNW,347,7.0,13.0,63,0.00,,,0.00,Wunderground v.1.15,2013-01-23 05:24:00,
2013-01-23 00:26:00,69.5,56.3,30.17,NE,35,6.0,15.0,63,0.00,,,0.00,Wunderground v.1.15,2013-01-23 05:26:00,
2013-01-23 00:29:00,69.5,56.3,30.17,North,356,3.0,15.0,63,0.00,,,0.00,Wunderground v.1.15,2013-01-23 05:29:00,
2013-01-23 00:33:00,69.4,55.8,30.18,ENE,58,3.0,11.0,62,0.00,,,0.00,Wunderground v.1.15,2013-01-23 05:33:00,
2013-01-23 00:34:00,69.5,56.3,30.18,NNW,347,5.0,11.0,63,0.00,,,0.00,Wunderground v.1.15,2013-01-23 05:34:00,
2013-01-23 00:35:00,69.4,55.8,30.18,NNE,17,12.0,12.0,62,0.00,,,0.00,Wunderground v.1.15,2013-01-23 05:35:00,
2013-01-23 00:38:00,69.4,55.8,30.19,North,1,6.0,12.0,62,0.00,,,0.00,Wunderground v.1.15,2013-01-23 05:38:00,
2013-01-23 00:39:00,69.4,55.8,30.18,NNW,337,3.0,12.0,62,0.00,,,0.00,Wunderground v.1.15,2013-01-23 05:39:00,
2013-01-23 00:40:00,69.4,55.8,30.18,NE,42,6.0,7.0,62,0.00,,,0.00,Wunderground v.1.15,2013-01-23 05:40:00,
2013-01-23 00:43:00,69.3,55.7,30.18,North,7,5.0,10.0,62,0.00,,,0.00,Wunderground v.1.15,2013-01-23 05:43:00,
2013-01-23 00:44:00,69.3,55.7,30.18,North,4,3.0,10.0,62,0.00,,,0.00,Wunderground v.1.15,2013-01-23 05:44:00,
2013-01-23 00:45:00,69.3,55.3,30.18,NNW,347,9.0,11.0,61,0.00,,,0.00,Wunderground v.1.15,2013-01-23 05:45:00,
2013-01-23 00:49:00,69.3,54.8,30.18,NNE,32,4.0,11.0,60,0.00,,,0.00,Wunderground v.1.15,2013-01-23 05:49:00,
2013-01-23 00:50:00,69.2,55.2,30.18,NNW,347,3.0,5.0,61,0.00,,,0.00,Wunderground v.1.15,2013-01-23 05:50:00,
2013-01-23 00:54:00,69.2,55.6,30.19,NW,314,5.0,6.0,62,0.00,,,0.00,Wunderground v.1.15,2013-01-23 05:54:00,
2013-01-23 00:55:00,69.2,55.6,30.18,North,356,3.0,9.0,62,0.00,,,0.00,Wunderground v.1.15,2013-01-23 05:55:00,
2013-01-23 00:56:00,69.2,55.2,30.18,NE,35,4.0,9.0,61,0.00,,,0.00,Wunderground v.1.15,2013-01-23 05:56:00,
2013-01-23 00:59:00,69.2,55.2,30.18,NNW,347,9.0,12.0,61,0.00,,,0.00,Wunderground v.1.15,2013-01-23 05:59:00,
2013-01-23 01:00:00,69.2,55.2,30.18,North,11,4.0,10.0,61,0.00,,,0.00,Wunderground v.1.15,2013-01-23 06:00:00,
2013-01-23 01:02:00,69.2,55.2,30.18,NNE,24,4.0,10.0,61,0.00,,,0.00,Wunderground v.1.15,2013-01-23 06:02:00,
2013-01-23 01:04:00,69.2,55.6,30.18,NE,37,5.0,10.0,62,0.00,,,0.00,Wunderground v.1.15,2013-01-23 06:04:00,
2013-01-23 01:06:00,69.2,55.6,30.18,NW,316,3.0,11.0,62,0.00,,,0.00,Wunderground v.1.15,2013-01-23 06:06:00,
2013-01-23 01:08:00,69.2,55.2,30.17,NNE,27,4.0,12.0,61,0.00,,,0.00,Wunderground v.1.15,2013-01-23 06:08:00,
2013-01-23 01:09:00,69.2,55.2,30.17,NNE,14,4.0,12.0,61,0.00,,,0.00,Wunderground v.1.15,2013-01-23 06:09:00,
2013-01-23 01:10:00,69.2,55.2,30.17,North,11,2.0,9.0,61,0.00,,,0.00,Wunderground v.1.15,2013-01-23 06:10:00,
2013-01-23 01:11:00,69.2,55.6,30.17,NNW,342,6.0,9.0,62,0.00,,,0.00,Wunderground v.1.15,2013-01-23 06:11:00,
2013-01-23 01:14:00,69.2,55.2,30.17,NNE,19,5.0,10.0,61,0.00,,,0.00,Wunderground v.1.15,2013-01-23 06:14:00,
2013-01-23 01:15:00,69.2,54.7,30.17,NNW,347,5.0,11.0,60,0.00,,,0.00,Wunderground v.1.15,2013-01-23 06:15:00,
2013-01-23 01:16:00,69.2,54.7,30.17,North,357,3.0,11.0,60,0.00,,,0.00,Wunderground v.1.15,2013-01-23 06:16:00,
2013-01-23 01:19:00,69.3,54.8,30.18,North,352,5.0,11.0,60,0.00,,,0.00,Wunderground v.1.15,2013-01-23 06:19:00,
2013-01-23 01:20:00,69.2,54.3,30.18,North,360,3.0,11.0,59,0.00,,,0.00,Wunderground v.1.15,2013-01-23 06:20:00,
2013-01-23 01:22:00,69.3,53.9,30.18,ENE,61,7.0,12.0,58,0.00,,,0.00,Wunderground v.1.15,2013-01-23 06:22:00,
2013-01-23 01:24:00,69.3,54.4,30.18,NNE,16,10.0,12.0,59,0.00,,,0.00,Wunderground v.1.15,2013-01-23 06:24:00,
2013-01-23 01:25:00,69.3,53.9,30.18,North,352,9.0,12.0,58,0.00,,,0.00,Wunderground v.1.15,2013-01-23 06:25:00,
2013-01-23 01:26:00,69.3,53.9,30.18,North,1,4.0,12.0,58,0.00,,,0.00,Wunderground v.1.15,2013-01-23 06:26:00,
2013-01-23 01:28:00,69.3,54.4,30.18,NNW,331,6.0,12.0,59,0.00,,,0.00,Wunderground v.1.15,2013-01-23 06:28:00,
2013-01-23 01:29:00,69.3,54.8,30.18,NNE,16,4.0,6.0,60,0.00,,,0.00,Wunderground v.1.15,2013-01-23 06:29:00,
2013-01-23 01:30:00,69.3,54.8,30.18,NNE,18,5.0,12.0,60,0.00,,,0.00,Wunderground v.1.15,2013-01-23 06:30:00,
2013-01-23 01:31:00,69.3,54.8,30.17,NW,317,3.0,12.0,60,0.00,,,0.00,Wunderground v.1.15,2013-01-23 06:31:00,
2013-01-23 01:33:00,69.3,55.7,30.18,NNW,338,5.0,12.0,62,0.00,,,0.00,Wunderground v.1.15,2013-01-23 06:33:00,
2013-01-23 01:34:00,69.3,55.3,30.18,NNW,329,7.0,12.0,61,0.00,,,0.00,Wunderground v.1.15,2013-01-23 06:34:00,
2013-01-23 01:35:00,69.3,55.3,30.18,NW,313,5.0,12.0,61,0.00,,,0.00,Wunderground v.1.15,2013-01-23 06:35:00,
2013-01-23 01:36:00,69.3,55.3,30.18,North,352,9.0,12.0,61,0.00,,,0.00,Wunderground v.1.15,2013-01-23 06:36:00,
2013-01-23 01:38:00,69.3,55.3,30.18,North,9,4.0,12.0,61,0.00,,,0.00,Wunderground v.1.15,2013-01-23 06:38:00,
2013-01-23 01:40:00,69.3,55.3,30.18,NNW,342,3.0,6.0,61,0.00,,,0.00,Wunderground v.1.15,2013-01-23 06:40:00,
2013-01-23 01:41:00,69.3,55.7,30.18,North,6,4.0,7.0,62,0.00,,,0.00,Wunderground v.1.15,2013-01-23 06:41:00,
2013-01-23 01:44:00,69.3,55.7,30.18,North,358,4.0,9.0,62,0.00,,,0.00,Wunderground v.1.15,2013-01-23 06:44:00,
2013-01-23 01:45:00,69.3,55.7,30.18,NNW,347,5.0,9.0,62,0.00,,,0.00,Wunderground v.1.15,2013-01-23 06:45:00,
2013-01-23 01:46:00,69.3,55.7,30.18,NNW,330,3.0,9.0,62,0.00,,,0.00,Wunderground v.1.15,2013-01-23 06:46:00,
2013-01-23 01:47:00,69.2,55.6,30.18,NNE,29,3.0,9.0,62,0.00,,,0.00,Wunderground v.1.15,2013-01-23 06:47:00,
2013-01-23 01:49:00,69.2,55.6,30.18,NNE,15,4.0,11.0,62,0.00,,,0.00,Wunderground v.1.15,2013-01-23 06:49:00,
2013-01-23 01:50:00,69.2,55.6,30.18,North,360,3.0,7.0,62,0.00,,,0.00,Wunderground v.1.15,2013-01-23 06:50:00,
2013-01-23 01:51:00,69.2,55.6,30.18,NNW,347,2.0,7.0,62,0.00,,,0.00,Wunderground v.1.15,2013-01-23 06:51:00,
2013-01-23 01:53:00,69.2,56.1,30.18,NW,315,1.0,9.0,63,0.00,,,0.00,Wunderground v.1.15,2013-01-23 06:53:00,
2013-01-23 01:54:00,69.2,56.1,30.18,NNW,334,6.0,9.0,63,0.00,,,0.00,Wunderground v.1.15,2013-01-23 06:54:00,
2013-01-23 01:56:00,69.2,55.6,30.17,North,2,3.0,13.0,62,0.00,,,0.00,Wunderground v.1.15,2013-01-23 06:56:00,
2013-01-23 01:57:00,69.2,55.6,30.17,NE,44,3.0,13.0,62,0.00,,,0.00,Wunderground v.1.15,2013-01-23 06:57:00,
2013-01-23 01:58:00,69.2,55.6,30.17,ENE,57,3.0,13.0,62,0.00,,,0.00,Wunderground v.1.15,2013-01-23 06:58:00,
2013-01-23 01:59:00,69.2,55.6,30.17,NNW,342,6.0,13.0,62,0.00,,,0.00,Wunderground v.1.15,2013-01-23 06:59:00,
2013-01-23 02:01:00,69.2,55.6,30.17,North,5,3.0,7.0,62,0.00,,,0.00,Wunderground v.1.15,2013-01-23 07:01:00,
2013-01-23 02:02:00,69.2,55.6,30.17,North,2,3.0,7.0,62,0.00,,,0.00,Wunderground v.1.15,2013-01-23 07:02:00,
2013-01-23 02:03:00,69.2,56.1,30.17,ENE,58,4.0,9.0,63,0.00,,,0.00,Wunderground v.1.15,2013-01-23 07:03:00,
2013-01-23 02:04:00,69.2,56.1,30.17,NNE,33,3.0,9.0,63,0.00,,,0.00,Wunderground v.1.15,2013-01-23 07:04:00,
2013-01-23 02:06:00,69.2,56.1,30.17,North,356,3.0,9.0,63,0.00,,,0.00,Wunderground v.1.15,2013-01-23 07:06:00,
2013-01-23 02:07:00,69.2,55.6,30.17,WNW,300,4.0,9.0,62,0.00,,,0.00,Wunderground v.1.15,2013-01-23 07:07:00,
2013-01-23 02:08:00,69.2,55.6,30.17,North,8,2.0,10.0,62,0.00,,,0.00,Wunderground v.1.15,2013-01-23 07:08:00,
2013-01-23 02:09:00,69.2,56.1,30.17,NE,36,6.0,9.0,63,0.00,,,0.00,Wunderground v.1.15,2013-01-23 07:09:00,
2013-01-23 02:11:00,69.2,56.1,30.17,North,358,4.0,9.0,63,0.00,,,0.00,Wunderground v.1.15,2013-01-23 07:11:00,
2013-01-23 02:13:00,69.2,55.6,30.17,NE,44,7.0,13.0,62,0.00,,,0.00,Wunderground v.1.15,2013-01-23 07:13:00,
2013-01-23 02:14:00,69.2,55.6,30.17,NNE,29,4.0,13.0,62,0.00,,,0.00,Wunderground v.1.15,2013-01-23 07:14:00,
2013-01-23 02:17:00,69.3,56.2,30.17,North,3,3.0,13.0,63,0.00,,,0.00,Wunderground v.1.15,2013-01-23 07:17:00,
2013-01-23 02:18:00,69.3,56.2,30.17,NE,48,6.0,13.0,63,0.00,,,0.00,Wunderground v.1.15,2013-01-23 07:18:00,
2013-01-23 02:19:00,69.3,56.2,30.17,NNE,18,3.0,13.0,63,0.00,,,0.00,Wunderground v.1.15,2013-01-23 07:19:00,
2013-01-23 02:23:00,69.2,55.6,30.18,NNE,14,4.0,12.0,62,0.00,,,0.00,Wunderground v.1.15,2013-01-23 07:23:00,
2013-01-23 02:24:00,69.2,55.6,30.17,NW,320,3.0,12.0,62,0.00,,,0.00,Wunderground v.1.15,2013-01-23 07:24:00,
2013-01-23 02:28:00,69.2,55.6,30.18,NNE,20,4.0,12.0,62,0.00,,,0.00,Wunderground v.1.15,2013-01-23 07:28:00,
2013-01-23 02:29:00,69.2,55.6,30.18,North,3,6.0,12.0,62,0.00,,,0.00,Wunderground v.1.15,2013-01-23 07:29:00,
2013-01-23 02:32:00,69.2,56.1,30.18,NNW,347,6.0,13.0,63,0.00,,,0.00,Wunderground v.1.15,2013-01-23 07:32:00,
2013-01-23 02:33:00,69.2,56.1,30.18,NNE,28,5.0,13.0,63,0.00,,,0.00,Wunderground v.1.15,2013-01-23 07:33:00,
2013-01-23 02:34:00,69.2,56.1,30.17,NNE,17,2.0,13.0,63,0.00,,,0.00,Wunderground v.1.15,2013-01-23 07:34:00,
2013-01-23 02:37:00,69.2,56.5,30.18,NNE,25,3.0,13.0,64,0.00,,,0.00,Wunderground v.1.15,2013-01-23 07:37:00,
2013-01-23 02:38:00,69.2,56.1,30.18,NNW,347,6.0,13.0,63,0.00,,,0.00,Wunderground v.1.15,2013-01-23 07:38:00,
2013-01-23 02:39:00,69.2,56.1,30.18,North,352,5.0,13.0,63,0.00,,,0.00,Wunderground v.1.15,2013-01-23 07:39:00,
2013-01-23 02:40:00,69.1,55.5,30.18,NNW,328,11.0,11.0,62,0.00,,,0.00,Wunderground v.1.15,2013-01-23 07:40:00,
2013-01-23 02:42:00,69.1,55.5,30.18,NNE,20,4.0,11.0,62,0.00,,,0.00,Wunderground v.1.15,2013-01-23 07:42:00,
2013-01-23 02:43:00,69.1,55.5,30.18,NNE,20,3.0,11.0,62,0.00,,,0.00,Wunderground v.1.15,2013-01-23 07:43:00,
2013-01-23 02:44:00,69.1,55.5,30.18,NNW,331,3.0,11.0,62,0.00,,,0.00,Wunderground v.1.15,2013-01-23 07:44:00,
2013-01-23 02:45:00,69.1,56.0,30.18,NW,318,4.0,11.0,63,0.00,,,0.00,Wunderground v.1.15,2013-01-23 07:45:00,
2013-01-23 02:47:00,69.1,55.5,30.18,NNE,23,4.0,11.0,62,0.00,,,0.00,Wunderground v.1.15,2013-01-23 07:47:00,
2013-01-23 02:48:00,69.1,55.5,30.18,NNE,25,3.0,11.0,62,0.00,,,0.00,Wunderground v.1.15,2013-01-23 07:48:00,
2013-01-23 02:50:00,69.1,55.5,30.18,NNE,28,2.0,10.0,62,0.00,,,0.00,Wunderground v.1.15,2013-01-23 07:50:00,
2013-01-23 02:53:00,69.1,55.5,30.18,NNW,342,10.0,10.0,62,0.00,,,0.00,Wunderground v.1.15,2013-01-23 07:53:00,
2013-01-23 02:55:00,69.1,55.5,30.18,NE,38,5.0,10.0,62,0.00,,,0.00,Wunderground v.1.15,2013-01-23 07:55:00,
2013-01-23 02:58:00,69.1,55.5,30.18,North,5,4.0,10.0,62,0.00,,,0.00,Wunderground v.1.15,2013-01-23 07:58:00,
2013-01-23 03:00:00,69.1,55.5,30.18,NNE,15,9.0,9.0,62,0.00,,,0.00,Wunderground v.1.15,2013-01-23 08:00:00,
2013-01-23 03:01:00,69.1,55.5,30.18,NNE,27,7.0,10.0,62,0.00,,,0.00,Wunderground v.1.15,2013-01-23 08:01:00,
2013-01-23 03:03:00,69.0,55.4,30.18,NE,46,6.0,10.0,62,0.00,,,0.00,Wunderground v.1.15,2013-01-23 08:03:00,
2013-01-23 03:05:00,69.0,55.0,30.18,NNE,18,6.0,13.0,61,0.00,,,0.00,Wunderground v.1.15,2013-01-23 08:05:00,
2013-01-23 03:07:00,69.0,55.0,30.18,NNW,347,5.0,13.0,61,0.00,,,0.00,Wunderground v.1.15,2013-01-23 08:07:00,
2013-01-23 03:08:00,69.0,55.0,30.18,NNE,29,4.0,13.0,61,0.00,,,0.00,Wunderground v.1.15,2013-01-23 08:08:00,
2013-01-23 03:11:00,69.0,55.0,30.18,NE,39,3.0,5.0,61,0.00,,,0.00,Wunderground v.1.15,2013-01-23 08:11:00,
2013-01-23 03:12:00,69.0,54.5,30.18,North,5,6.0,7.0,60,0.00,,,0.00,Wunderground v.1.15,2013-01-23 08:12:00,
2013-01-23 03:13:00,69.0,54.5,30.18,NNE,31,5.0,7.0,60,0.00,,,0.00,Wunderground v.1.15,2013-01-23 08:13:00,
2013-01-23 03:14:00,69.0,55.0,30.18,North,352,3.0,7.0,61,0.00,,,0.00,Wunderground v.1.15,2013-01-23 08:14:00,
2013-01-23 03:16:00,69.0,55.0,30.18,NNE,19,2.0,12.0,61,0.00,,,0.00,Wunderground v.1.15,2013-01-23 08:16:00,
2013-01-23 03:17:00,68.9,54.9,30.18,NNW,337,3.0,12.0,61,0.00,,,0.00,Wunderground v.1.15,2013-01-23 08:17:00,
2013-01-23 03:18:00,68.9,54.9,30.18,NNE,28,2.0,12.0,61,0.00,,,0.00,Wunderground v.1.15,2013-01-23 08:18:00,
2013-01-23 03:19:00,68.9,55.3,30.18,NNE,16,1.0,12.0,62,0.00,,,0.00,Wunderground v.1.15,2013-01-23 08:19:00,
2013-01-23 03:21:00,68.9,55.3,30.18,North,357,1.0,9.0,62,0.00,,,0.00,Wunderground v.1.15,2013-01-23 08:21:00,
2013-01-23 03:22:00,68.9,54.9,30.18,NNW,347,1.0,9.0,61,0.00,,,0.00,Wunderground v.1.15,2013-01-23 08:22:00,
2013-01-23 03:23:00,68.9,54.9,30.18,NE,36,2.0,9.0,61,0.00,,,0.00,Wunderground v.1.15,2013-01-23 08:23:00,
2013-01-23 03:24:00,68.8,54.8,30.18,NNW,333,5.0,9.0,61,0.00,,,0.00,Wunderground v.1.15,2013-01-23 08:24:00,
2013-01-23 03:28:00,68.8,55.2,30.18,NNE,21,7.0,12.0,62,0.00,,,0.00,Wunderground v.1.15,2013-01-23 08:28:00,
2013-01-23 03:29:00,68.8,54.8,30.18,ENE,63,4.0,12.0,61,0.00,,,0.00,Wunderground v.1.15,2013-01-23 08:29:00,
2013-01-23 03:33:00,68.8,55.2,30.18,NNW,342,9.0,12.0,62,0.00,,,0.00,Wunderground v.1.15,2013-01-23 08:33:00,
2013-01-23 03:34:00,68.8,55.2,30.18,NE,51,5.0,12.0,62,0.00,,,0.00,Wunderground v.1.15,2013-01-23 08:34:00,
2013-01-23 03:38:00,68.8,54.8,30.18,NNW,338,5.0,12.0,61,0.00,,,0.00,Wunderground v.1.15,2013-01-23 08:38:00,
2013-01-23 03:39:00,68.8,54.8,30.18,NNW,347,3.0,12.0,61,0.00,,,0.00,Wunderground v.1.15,2013-01-23 08:39:00,
2013-01-23 03:43:00,68.9,55.8,30.18,NNE,17,5.0,7.0,63,0.00,,,0.00,Wunderground v.1.15,2013-01-23 08:43:00,
2013-01-23 03:44:00,68.9,55.8,30.18,NE,39,5.0,7.0,63,0.00,,,0.00,Wunderground v.1.15,2013-01-23 08:44:00,
2013-01-23 03:48:00,68.9,55.8,30.18,North,11,6.0,10.0,63,0.00,,,0.00,Wunderground v.1.15,2013-01-23 08:48:00,
2013-01-23 03:49:00,68.9,54.9,30.18,NNE,17,7.0,7.0,61,0.00,,,0.00,Wunderground v.1.15,2013-01-23 08:49:00,
2013-01-23 03:50:00,68.9,54.4,30.18,ENE,73,5.0,7.0,60,0.00,,,0.00,Wunderground v.1.15,2013-01-23 08:50:00,
2013-01-23 03:53:00,68.9,55.3,30.18,NNE,17,10.0,12.0,62,0.00,,,0.00,Wunderground v.1.15,2013-01-23 08:53:00,
2013-01-23 03:54:00,68.9,55.3,30.18,NE,54,3.0,12.0,62,0.00,,,0.00,Wunderground v.1.15,2013-01-23 08:54:00,
2013-01-23 03:55:00,68.9,55.8,30.18,NNE,18,4.0,12.0,63,0.00,,,0.00,Wunderground v.1.15,2013-01-23 08:55:00,
2013-01-23 03:58:00,69.0,55.4,30.18,NE,45,5.0,12.0,62,0.00,,,0.00,Wunderground v.1.15,2013-01-23 08:58:00,
2013-01-23 03:59:00,68.9,55.3,30.18,NNE,20,6.0,7.0,62,0.00,,,0.00,Wunderground v.1.15,2013-01-23 08:59:00,
2013-01-23 04:00:00,68.9,55.3,30.18,NNE,17,4.0,7.0,62,0.00,,,0.00,Wunderground v.1.15,2013-01-23 09:00:00,
2013-01-23 04:03:00,68.9,54.4,30.18,ENE,69,11.0,11.0,60,0.00,,,0.00,Wunderground v.1.15,2013-01-23 09:03:00,
2013-01-23 04:04:00,68.9,54.4,30.18,North,359,9.0,11.0,60,0.00,,,0.00,Wunderground v.1.15,2013-01-23 09:04:00,
2013-01-23 04:06:00,68.9,54.4,30.18,NE,38,7.0,11.0,60,0.00,,,0.00,Wunderground v.1.15,2013-01-23 09:06:00,
2013-01-23 04:08:00,68.9,54.9,30.17,NW,311,1.0,11.0,61,0.00,,,0.00,Wunderground v.1.15,2013-01-23 09:08:00,
2013-01-23 04:09:00,68.9,54.9,30.17,NNW,337,1.0,11.0,61,0.00,,,0.00,Wunderground v.1.15,2013-01-23 09:09:00,
2013-01-23 04:12:00,68.9,54.9,30.17,NE,55,5.0,9.0,61,0.00,,,0.00,Wunderground v.1.15,2013-01-23 09:12:00,
2013-01-23 04:14:00,68.9,54.9,30.18,NNE,20,3.0,9.0,61,0.00,,,0.00,Wunderground v.1.15,2013-01-23 09:14:00,
2013-01-23 04:17:00,68.9,55.8,30.18,NNW,342,5.0,9.0,63,0.00,,,0.00,Wunderground v.1.15,2013-01-23 09:17:00,
2013-01-23 04:19:00,68.9,55.8,30.18,North,358,3.0,10.0,63,0.00,,,0.00,Wunderground v.1.15,2013-01-23 09:19:00,
2013-01-23 04:20:00,68.9,55.8,30.18,North,11,4.0,6.0,63,0.00,,,0.00,Wunderground v.1.15,2013-01-23 09:20:00,
2013-01-23 04:22:00,68.9,55.8,30.18,NE,41,5.0,9.0,63,0.00,,,0.00,Wunderground v.1.15,2013-01-23 09:22:00,
2013-01-23 04:24:00,68.9,55.8,30.18,NE,50,5.0,9.0,63,0.00,,,0.00,Wunderground v.1.15,2013-01-23 09:24:00,
2013-01-23 04:25:00,68.9,55.3,30.18,NNW,347,2.0,9.0,62,0.00,,,0.00,Wunderground v.1.15,2013-01-23 09:25:00,
2013-01-23 04:27:00,68.9,55.3,30.17,NNW,333,3.0,11.0,62,0.00,,,0.00,Wunderground v.1.15,2013-01-23 09:27:00,
2013-01-23 04:29:00,68.8,55.2,30.17,NNE,15,7.0,11.0,62,0.00,,,0.00,Wunderground v.1.15,2013-01-23 09:29:00,
2013-01-23 04:30:00,68.8,55.7,30.18,ENE,60,4.0,4.0,63,0.00,,,0.00,Wunderground v.1.15,2013-01-23 09:30:00,
2013-01-23 04:32:00,68.9,55.8,30.17,NNW,347,2.0,10.0,63,0.00,,,0.00,Wunderground v.1.15,2013-01-23 09:32:00,
2013-01-23 04:34:00,68.9,55.8,30.17,NNE,24,4.0,10.0,63,0.00,,,0.00,Wunderground v.1.15,2013-01-23 09:34:00,
2013-01-23 04:37:00,68.9,55.8,30.17,North,352,5.0,11.0,63,0.00,,,0.00,Wunderground v.1.15,2013-01-23 09:37:00,
2013-01-23 04:39:00,68.9,55.8,30.17,North,6,3.0,11.0,63,0.00,,,0.00,Wunderground v.1.15,2013-01-23 09:39:00,
2013-01-23 04:42:00,68.8,55.7,30.17,NNW,327,5.0,6.0,63,0.00,,,0.00,Wunderground v.1.15,2013-01-23 09:42:00,
2013-01-23 04:44:00,68.9,55.8,30.17,NNW,334,0.0,8.0,63,0.00,,,0.00,Wunderground v.1.15,2013-01-23 09:44:00,
2013-01-23 04:47:00,68.9,56.2,30.17,NNW,342,4.0,10.0,64,0.00,,,0.00,Wunderground v.1.15,2013-01-23 09:47:00,
2013-01-23 04:48:00,68.8,56.1,30.17,NNE,21,2.0,10.0,64,0.00,,,0.00,Wunderground v.1.15,2013-01-23 09:48:00,
2013-01-23 04:49:00,68.8,55.7,30.17,NNE,23,1.0,4.0,63,0.00,,,0.00,Wunderground v.1.15,2013-01-23 09:49:00,
2013-01-23 04:52:00,68.8,55.7,30.17,NE,35,4.0,11.0,63,0.00,,,0.00,Wunderground v.1.15,2013-01-23 09:52:00,
2013-01-23 04:53:00,68.8,55.2,30.17,NE,40,2.0,11.0,62,0.00,,,0.00,Wunderground v.1.15,2013-01-23 09:53:00,
2013-01-23 04:54:00,68.8,55.7,30.17,East,88,4.0,11.0,63,0.00,,,0.00,Wunderground v.1.15,2013-01-23 09:54:00,
2013-01-23 04:55:00,68.8,55.2,30.17,ENE,63,4.0,11.0,62,0.00,,,0.00,Wunderground v.1.15,2013-01-23 09:55:00,
2013-01-23 04:57:00,68.8,55.2,30.17,NE,36,1.0,11.0,62,0.00,,,0.00,Wunderground v.1.15,2013-01-23 09:57:00,
2013-01-23 04:58:00,68.8,55.2,30.17,North,360,5.0,12.0,62,0.00,,,0.00,Wunderground v.1.15,2013-01-23 09:58:00,
2013-01-23 04:59:00,68.8,55.2,30.17,North,1,1.0,4.0,62,0.00,,,0.00,Wunderground v.1.15,2013-01-23 09:59:00,
2013-01-23 05:00:00,68.8,54.8,30.17,North,9,2.0,4.0,61,0.00,,,0.00,Wunderground v.1.15,2013-01-23 10:00:00,
2013-01-23 05:03:00,68.8,54.8,30.17,NNW,331,4.0,7.0,61,0.00,,,0.00,Wunderground v.1.15,2013-01-23 10:03:00,
2013-01-23 05:05:00,68.8,55.2,30.17,NNW,342,1.0,7.0,62,0.00,,,0.00,Wunderground v.1.15,2013-01-23 10:05:00,
2013-01-23 05:08:00,68.8,54.8,30.18,NNW,335,2.0,10.0,61,0.00,,,0.00,Wunderground v.1.15,2013-01-23 10:08:00,
2013-01-23 05:09:00,68.8,54.8,30.18,NNW,329,2.0,10.0,61,0.00,,,0.00,Wunderground v.1.15,2013-01-23 10:09:00,
2013-01-23 05:10:00,68.8,54.3,30.18,North,3,2.0,5.0,60,0.00,,,0.00,Wunderground v.1.15,2013-01-23 10:10:00,
2013-01-23 05:13:00,68.8,54.8,30.18,NNE,25,6.0,10.0,61,0.00,,,0.00,Wunderground v.1.15,2013-01-23 10:13:00,
2013-01-23 05:14:00,68.8,54.8,30.18,ENE,63,8.0,10.0,61,0.00,,,0.00,Wunderground v.1.15,2013-01-23 10:14:00,
2013-01-23 05:15:00,68.8,54.8,30.18,NE,40,10.0,13.0,61,0.00,,,0.00,Wunderground v.1.15,2013-01-23 10:15:00,
2013-01-23 05:18:00,68.8,54.8,30.18,North,11,3.0,13.0,61,0.00,,,0.00,Wunderground v.1.15,2013-01-23 10:18:00,
2013-01-23 05:19:00,68.9,54.9,30.18,NNW,347,4.0,13.0,61,0.00,,,0.00,Wunderground v.1.15,2013-01-23 10:19:00,
2013-01-23 05:20:00,68.8,54.8,30.18,North,356,9.0,9.0,61,0.00,,,0.00,Wunderground v.1.15,2013-01-23 10:20:00,
2013-01-23 05:21:00,68.8,54.8,30.18,NE,36,5.0,9.0,61,0.00,,,0.00,Wunderground v.1.15,2013-01-23 10:21:00,
2013-01-23 05:24:00,68.9,54.9,30.18,North,8,5.0,10.0,61,0.00,,,0.00,Wunderground v.1.15,2013-01-23 10:24:00,
2013-01-23 05:25:00,68.9,54.9,30.18,NNE,19,5.0,10.0,61,0.00,,,0.00,Wunderground v.1.15,2013-01-23 10:25:00,
2013-01-23 05:26:00,68.9,54.9,30.18,NNE,17,2.0,10.0,61,0.00,,,0.00,Wunderground v.1.15,2013-01-23 10:26:00,
2013-01-23 05:29:00,68.9,54.4,30.18,NE,48,3.0,10.0,60,0.00,,,0.00,Wunderground v.1.15,2013-01-23 10:29:00,
2013-01-23 05:30:00,68.9,54.4,30.18,NNE,21,6.0,7.0,60,0.00,,,0.00,Wunderground v.1.15,2013-01-23 10:30:00,
2013-01-23 05:31:00,68.8,54.3,30.18,NNE,25,5.0,7.0,60,0.00,,,0.00,Wunderground v.1.15,2013-01-23 10:31:00,
2013-01-23 05:34:00,68.8,53.9,30.18,NNE,13,2.0,9.0,59,0.00,,,0.00,Wunderground v.1.15,2013-01-23 10:34:00,
2013-01-23 05:35:00,68.8,53.9,30.18,NNE,19,3.0,9.0,59,0.00,,,0.00,Wunderground v.1.15,2013-01-23 10:35:00,
2013-01-23 05:36:00,68.8,54.3,30.18,NNE,17,0.0,9.0,60,0.00,,,0.00,Wunderground v.1.15,2013-01-23 10:36:00,
2013-01-23 05:39:00,68.8,53.9,30.18,NNE,25,3.0,12.0,59,0.00,,,0.00,Wunderground v.1.15,2013-01-23 10:39:00,
2013-01-23 05:40:00,68.8,53.9,30.18,NNW,347,7.0,7.0,59,0.00,,,0.00,Wunderground v.1.15,2013-01-23 10:40:00,
2013-01-23 05:41:00,68.8,53.4,30.18,NNE,13,10.0,10.0,58,0.00,,,0.00,Wunderground v.1.15,2013-01-23 10:41:00,
2013-01-23 05:42:00,68.9,53.5,30.19,NNW,331,5.0,10.0,58,0.00,,,0.00,Wunderground v.1.15,2013-01-23 10:42:00,
2013-01-23 05:44:00,68.9,53.5,30.19,NNE,27,5.0,10.0,58,0.00,,,0.00,Wunderground v.1.15,2013-01-23 10:44:00,
2013-01-23 05:46:00,68.9,53.0,30.19,North,11,3.0,10.0,57,0.00,,,0.00,Wunderground v.1.15,2013-01-23 10:46:00,
2013-01-23 05:47:00,68.9,53.0,30.19,NNW,347,4.0,10.0,57,0.00,,,0.00,Wunderground v.1.15,2013-01-23 10:47:00,
2013-01-23 05:49:00,68.9,53.0,30.19,NNW,342,2.0,4.0,57,0.00,,,0.00,Wunderground v.1.15,2013-01-23 10:49:00,
2013-01-23 05:52:00,68.9,53.5,30.19,North,7,1.0,9.0,58,0.00,,,0.00,Wunderground v.1.15,2013-01-23 10:52:00,
2013-01-23 05:54:00,68.9,54.0,30.19,NNW,347,1.0,9.0,59,0.00,,,0.00,Wunderground v.1.15,2013-01-23 10:54:00,
2013-01-23 05:57:00,68.9,54.0,30.19,NNE,32,2.0,9.0,59,0.00,,,0.00,Wunderground v.1.15,2013-01-23 10:57:00,
2013-01-23 05:58:00,68.9,54.4,30.20,NNE,29,4.0,10.0,60,0.00,,,0.00,Wunderground v.1.15,2013-01-23 10:58:00,
2013-01-23 05:59:00,68.9,54.4,30.20,ENE,61,4.0,4.0,60,0.00,,,0.00,Wunderground v.1.15,2013-01-23 10:59:00,
2013-01-23 06:02:00,68.9,54.0,30.20,North,6,6.0,7.0,59,0.00,,,0.00,Wunderground v.1.15,2013-01-23 11:02:00,
2013-01-23 06:03:00,68.9,54.0,30.20,ENE,65,3.0,7.0,59,0.00,,,0.00,Wunderground v.1.15,2013-01-23 11:03:00,
2013-01-23 06:05:00,68.8,53.4,30.20,North,11,3.0,7.0,58,0.00,,,0.00,Wunderground v.1.15,2013-01-23 11:05:00,
2013-01-23 06:07:00,68.9,53.5,30.20,North,4,3.0,7.0,58,0.00,,,0.00,Wunderground v.1.15,2013-01-23 11:07:00,
2013-01-23 06:08:00,68.8,53.4,30.20,North,9,2.0,8.0,58,0.00,,,0.00,Wunderground v.1.15,2013-01-23 11:08:00,
2013-01-23 06:09:00,68.9,54.0,30.20,NNE,27,3.0,8.0,59,0.00,,,0.00,Wunderground v.1.15,2013-01-23 11:09:00,
2013-01-23 06:10:00,68.9,54.0,30.20,NNE,28,3.0,4.0,59,0.00,,,0.00,Wunderground v.1.15,2013-01-23 11:10:00,
2013-01-23 06:12:00,68.9,54.4,30.20,NNE,32,4.0,7.0,60,0.00,,,0.00,Wunderground v.1.15,2013-01-23 11:12:00,
2013-01-23 06:13:00,68.8,54.3,30.20,NE,52,7.0,7.0,60,0.00,,,0.00,Wunderground v.1.15,2013-01-23 11:13:00,
2013-01-23 06:14:00,68.8,54.3,30.20,NE,34,3.0,7.0,60,0.00,,,0.00,Wunderground v.1.15,2013-01-23 11:14:00,
2013-01-23 06:17:00,68.8,54.8,30.20,North,356,5.0,7.0,61,0.00,,,0.00,Wunderground v.1.15,2013-01-23 11:17:00,
2013-01-23 06:19:00,68.8,54.3,30.20,NNE,16,1.0,7.0,60,0.00,,,0.00,Wunderground v.1.15,2013-01-23 11:19:00,
2013-01-23 06:22:00,68.8,54.8,30.20,NNW,331,3.0,7.0,61,0.00,,,0.00,Wunderground v.1.15,2013-01-23 11:22:00,
2013-01-23 06:23:00,68.8,54.8,30.20,NNE,27,10.0,10.0,61,0.00,,,0.00,Wunderground v.1.15,2013-01-23 11:23:00,
2013-01-23 06:24:00,68.8,54.8,30.20,North,11,2.0,10.0,61,0.00,,,0.00,Wunderground v.1.15,2013-01-23 11:24:00,
2013-01-23 06:25:00,68.8,54.8,30.20,NE,38,6.0,10.0,61,0.00,,,0.00,Wunderground v.1.15,2013-01-23 11:25:00,
2013-01-23 06:27:00,68.9,54.4,30.20,North,8,5.0,10.0,60,0.00,,,0.00,Wunderground v.1.15,2013-01-23 11:27:00,
2013-01-23 06:28:00,68.9,54.4,30.20,NNE,29,4.0,10.0,60,0.00,,,0.00,Wunderground v.1.15,2013-01-23 11:28:00,
2013-01-23 06:29:00,68.9,54.4,30.20,NW,315,4.0,10.0,60,0.00,,,0.00,Wunderground v.1.15,2013-01-23 11:29:00,
2013-01-23 06:30:00,68.9,54.4,30.21,NNW,347,3.0,4.0,60,0.00,,,0.00,Wunderground v.1.15,2013-01-23 11:30:00,
2013-01-23 06:33:00,68.9,54.4,30.21,NNE,21,4.0,8.0,60,0.00,,,0.00,Wunderground v.1.15,2013-01-23 11:33:00,
2013-01-23 06:34:00,68.9,54.4,30.21,NNE,13,5.0,8.0,60,0.00,,,0.00,Wunderground v.1.15,2013-01-23 11:34:00,
2013-01-23 06:35:00,68.9,54.4,30.21,NNE,30,3.0,8.0,60,0.00,,,0.00,Wunderground v.1.15,2013-01-23 11:35:00,
2013-01-23 06:38:00,68.9,53.5,30.21,NNE,24,6.0,9.0,58,0.00,,,0.00,Wunderground v.1.15,2013-01-23 11:38:00,
2013-01-23 06:39:00,68.9,54.0,30.21,North,356,3.0,9.0,59,0.00,,,0.00,Wunderground v.1.15,2013-01-23 11:39:00,
2013-01-23 06:40:00,68.9,54.0,30.21,NNW,342,2.0,12.0,59,0.00,,,0.00,Wunderground v.1.15,2013-01-23 11:40:00,
2013-01-23 06:43:00,69.0,54.1,30.21,NE,41,3.0,12.0,59,0.00,,,0.00,Wunderground v.1.15,2013-01-23 11:43:00,
2013-01-23 06:44:00,69.0,54.1,30.21,NE,47,3.0,12.0,59,0.00,,,0.00,Wunderground v.1.15,2013-01-23 11:44:00,
2013-01-23 06:45:00,69.0,54.5,30.21,NNW,328,5.0,12.0,60,0.00,,,0.00,Wunderground v.1.15,2013-01-23 11:45:00,
2013-01-23 06:49:00,69.0,54.5,30.21,North,356,0.0,12.0,60,0.00,,,0.00,Wunderground v.1.15,2013-01-23 11:49:00,
2013-01-23 06:50:00,69.0,55.0,30.21,NE,40,2.0,6.0,61,0.00,,,0.00,Wunderground v.1.15,2013-01-23 11:50:00,
2013-01-23 06:54:00,69.0,54.5,30.20,NE,48,4.0,10.0,60,0.00,,,0.00,Wunderground v.1.15,2013-01-23 11:54:00,
2013-01-23 06:55:00,69.0,54.1,30.20,NNE,15,2.0,10.0,59,0.00,,,0.00,Wunderground v.1.15,2013-01-23 11:55:00,
2013-01-23 06:56:00,69.0,54.1,30.20,NNE,31,5.0,10.0,59,0.00,,,0.00,Wunderground v.1.15,2013-01-23 11:56:00,
2013-01-23 06:59:00,69.0,54.1,30.20,NNW,342,2.0,4.0,59,0.00,,,0.00,Wunderground v.1.15,2013-01-23 11:59:00,
2013-01-23 07:00:00,69.0,54.1,30.20,NNW,342,2.0,4.0,59,0.00,,,0.00,Wunderground v.1.15,2013-01-23 12:00:00,
2013-01-23 07:01:00,69.0,54.5,30.20,NNE,31,4.0,6.0,60,0.00,,,0.00,Wunderground v.1.15,2013-01-23 12:01:00,
2013-01-23 07:05:00,69.0,53.6,30.20,North,9,4.0,10.0,58,0.00,,,0.00,Wunderground v.1.15,2013-01-23 12:05:00,
2013-01-23 07:06:00,69.0,53.1,30.21,NE,35,4.0,10.0,57,0.00,,,0.00,Wunderground v.1.15,2013-01-23 12:06:00,
2013-01-23 07:10:00,69.0,53.6,30.21,NNW,331,5.0,5.0,58,0.00,,,0.00,Wunderground v.1.15,2013-01-23 12:10:00,
2013-01-23 07:11:00,69.0,53.6,30.22,NE,56,3.0,5.0,58,0.00,,,0.00,Wunderground v.1.15,2013-01-23 12:11:00,
2013-01-23 07:12:00,69.0,54.1,30.22,NNW,347,5.0,5.0,59,0.00,,,0.00,Wunderground v.1.15,2013-01-23 12:12:00,
2013-01-23 07:15:00,69.0,54.1,30.22,NNE,15,5.0,7.0,59,0.00,,,0.00,Wunderground v.1.15,2013-01-23 12:15:00,
2013-01-23 07:17:00,69.1,54.6,30.21,NW,321,3.0,8.0,60,0.00,,,0.00,Wunderground v.1.15,2013-01-23 12:17:00,
2013-01-23 07:20:00,69.1,54.6,30.22,NNE,20,3.0,6.0,60,0.00,,,0.00,Wunderground v.1.15,2013-01-23 12:20:00,
2013-01-23 07:21:00,69.1,54.6,30.22,North,358,2.0,6.0,60,0.00,,,0.00,Wunderground v.1.15,2013-01-23 12:21:00,
2013-01-23 07:22:00,69.1,54.6,30.22,NNE,17,3.0,6.0,60,0.00,,,0.00,Wunderground v.1.15,2013-01-23 12:22:00,
2013-01-23 07:25:00,69.1,54.6,30.22,North,352,3.0,9.0,60,0.00,,,0.00,Wunderground v.1.15,2013-01-23 12:25:00,
2013-01-23 07:26:00,69.1,55.1,30.22,North,352,4.0,9.0,61,0.00,,,0.00,Wunderground v.1.15,2013-01-23 12:26:00,
2013-01-23 07:27:00,69.1,55.1,30.22,NNW,342,5.0,9.0,61,0.00,,,0.00,Wunderground v.1.15,2013-01-23 12:27:00,
2013-01-23 07:28:00,69.2,55.2,30.22,NNE,13,4.0,9.0,61,0.00,,,0.00,Wunderground v.1.15,2013-01-23 12:28:00,
2013-01-23 07:30:00,69.2,54.7,30.22,NNW,347,5.0,11.0,60,0.00,,,0.00,Wunderground v.1.15,2013-01-23 12:30:00,
2013-01-23 07:32:00,69.2,55.2,30.22,NE,40,5.0,11.0,61,0.00,,,0.00,Wunderground v.1.15,2013-01-23 12:32:00,
2013-01-23 07:33:00,69.2,55.2,30.22,ENE,59,6.0,11.0,61,0.00,,,0.00,Wunderground v.1.15,2013-01-23 12:33:00,
2013-01-23 07:36:00,69.2,54.7,30.22,NNW,335,4.0,11.0,60,0.00,,,0.00,Wunderground v.1.15,2013-01-23 12:36:00,
2013-01-23 07:37:00,69.2,54.7,30.22,ENE,71,6.0,13.0,60,0.00,,,0.00,Wunderground v.1.15,2013-01-23 12:37:00,
2013-01-23 07:38:00,69.2,54.7,30.22,WNW,299,6.0,13.0,60,0.00,,,0.00,Wunderground v.1.15,2013-01-23 12:38:00,
2013-01-23 07:41:00,69.2,54.7,30.22,North,358,3.0,7.0,60,0.00,,,0.00,Wunderground v.1.15,2013-01-23 12:41:00,
2013-01-23 07:42:00,69.2,54.7,30.22,NE,52,5.0,7.0,60,0.00,,,0.00,Wunderground v.1.15,2013-01-23 12:42:00,
2013-01-23 07:43:00,69.2,55.2,30.23,NNE,19,3.0,7.0,61,0.00,,,0.00,Wunderground v.1.15,2013-01-23 12:43:00,
2013-01-23 07:46:00,69.2,55.2,30.23,NNE,21,9.0,10.0,61,0.00,,,0.00,Wunderground v.1.15,2013-01-23 12:46:00,
2013-01-23 07:47:00,69.2,55.2,30.22,North,4,1.0,10.0,61,0.00,,,0.00,Wunderground v.1.15,2013-01-23 12:47:00,
2013-01-23 07:48:00,69.3,55.3,30.22,NE,47,0.0,10.0,61,0.00,,,0.00,Wunderground v.1.15,2013-01-23 12:48:00,
2013-01-23 07:49:00,69.3,55.7,30.22,NNW,347,1.0,10.0,62,0.00,,,0.00,Wunderground v.1.15,2013-01-23 12:49:00,
2013-01-23 07:51:00,69.2,55.6,30.22,NNE,21,2.0,5.0,62,0.00,,,0.00,Wunderground v.1.15,2013-01-23 12:51:00,
2013-01-23 07:53:00,69.2,55.6,30.23,NNW,342,4.0,5.0,62,0.00,,,0.00,Wunderground v.1.15,2013-01-23 12:53:00,
2013-01-23 07:54:00,69.2,55.6,30.23,NE,36,3.0,6.0,62,0.00,,,0.00,Wunderground v.1.15,2013-01-23 12:54:00,
2013-01-23 07:58:00,69.2,55.2,30.23,North,5,3.0,9.0,61,0.00,,,0.00,Wunderground v.1.15,2013-01-23 12:58:00,
2013-01-23 07:59:00,69.2,55.6,30.23,North,6,4.0,4.0,62,0.00,,,0.00,Wunderground v.1.15,2013-01-23 12:59:00,
2013-01-23 08:03:00,69.2,55.2,30.23,NNW,337,1.0,6.0,61,0.00,,,0.00,Wunderground v.1.15,2013-01-23 13:03:00,
2013-01-23 08:04:00,69.2,55.2,30.23,NNW,335,4.0,6.0,61,0.00,,,0.00,Wunderground v.1.15,2013-01-23 13:04:00,
2013-01-23 08:08:00,69.2,56.5,30.24,NW,317,3.0,6.0,64,0.00,,,0.00,Wunderground v.1.15,2013-01-23 13:08:00,
2013-01-23 08:09:00,69.2,56.5,30.24,NNW,329,4.0,6.0,64,0.00,,,0.00,Wunderground v.1.15,2013-01-23 13:09:00,
2013-01-23 08:13:00,69.0,56.7,30.24,NW,308,0.0,4.0,65,0.00,,,0.00,Wunderground v.1.15,2013-01-23 13:13:00,
2013-01-23 08:15:00,68.9,56.6,30.24,NW,317,2.0,6.0,65,0.00,,,0.00,Wunderground v.1.15,2013-01-23 13:15:00,
2013-01-23 08:18:00,68.6,56.8,30.24,WNW,292,5.0,6.0,66,0.00,,,0.00,Wunderground v.1.15,2013-01-23 13:18:00,
2013-01-23 08:19:00,68.5,56.7,30.24,NW,312,4.0,6.0,66,0.00,,,0.00,Wunderground v.1.15,2013-01-23 13:19:00,
2013-01-23 08:20:00,68.5,56.7,30.24,NW,304,4.0,5.0,66,0.00,,,0.00,Wunderground v.1.15,2013-01-23 13:20:00,
2013-01-23 08:23:00,68.1,56.7,30.23,West,279,7.0,7.0,67,0.00,,,0.00,Wunderground v.1.15,2013-01-23 13:23:00,
2013-01-23 08:24:00,68.0,57.0,30.23,NW,312,5.0,7.0,68,0.00,,,0.00,Wunderground v.1.15,2013-01-23 13:24:00,
2013-01-23 08:25:00,67.9,56.9,30.24,WNW,294,2.0,7.0,68,0.00,,,0.00,Wunderground v.1.15,2013-01-23 13:25:00,
2013-01-23 08:29:00,67.7,56.8,30.24,NW,323,5.0,7.0,68,0.00,,,0.00,Wunderground v.1.15,2013-01-23 13:29:00,
2013-01-23 08:30:00,67.6,56.7,30.24,WNW,286,3.0,4.0,68,0.00,,,0.00,Wunderground v.1.15,2013-01-23 13:30:00,
2013-01-23 08:34:00,67.2,57.1,30.24,WNW,302,3.0,6.0,70,0.00,,,0.00,Wunderground v.1.15,2013-01-23 13:34:00,
2013-01-23 08:35:00,67.2,57.1,30.24,WNW,297,1.0,6.0,70,0.00,,,0.00,Wunderground v.1.15,2013-01-23 13:35:00,
2013-01-23 08:36:00,67.1,57.0,30.24,NW,323,4.0,6.0,70,0.00,,,0.00,Wunderground v.1.15,2013-01-23 13:36:00,
2013-01-23 08:39:00,67.0,56.9,30.24,NW,316,1.0,3.0,70,0.00,,,0.00,Wunderground v.1.15,2013-01-23 13:39:00,
2013-01-23 08:40:00,67.0,56.9,30.24,NW,316,1.0,3.0,70,0.00,,,0.00,Wunderground v.1.15,2013-01-23 13:40:00,
2013-01-23 08:41:00,66.9,57.2,30.24,WNW,290,2.0,5.0,71,0.00,,,0.00,Wunderground v.1.15,2013-01-23 13:41:00,
2013-01-23 08:44:00,66.8,57.1,30.25,WNW,303,2.0,5.0,71,0.00,,,0.00,Wunderground v.1.15,2013-01-23 13:44:00,
2013-01-23 08:45:00,66.8,57.1,30.25,NW,313,3.0,5.0,71,0.00,,,0.00,Wunderground v.1.15,2013-01-23 13:45:00,
2013-01-23 08:46:00,66.8,57.1,30.25,WNW,301,2.0,5.0,71,0.00,,,0.00,Wunderground v.1.15,2013-01-23 13:46:00,
2013-01-23 08:49:00,66.7,57.0,30.25,WNW,286,9.0,10.0,71,0.00,,,0.00,Wunderground v.1.15,2013-01-23 13:49:00,
2013-01-23 08:50:00,66.8,57.5,30.25,NW,308,5.0,10.0,72,0.00,,,0.00,Wunderground v.1.15,2013-01-23 13:50:00,
2013-01-23 08:52:00,66.8,57.1,30.25,WNW,287,3.0,10.0,71,0.00,,,0.00,Wunderground v.1.15,2013-01-23 13:52:00,
2013-01-23 08:54:00,66.8,57.1,30.25,WNW,296,3.0,10.0,71,0.00,,,0.00,Wunderground v.1.15,2013-01-23 13:54:00,
2013-01-23 08:55:00,66.8,57.1,30.25,NW,310,1.0,10.0,71,0.00,,,0.00,Wunderground v.1.15,2013-01-23 13:55:00,
2013-01-23 08:57:00,66.9,57.2,30.25,NNW,327,2.0,10.0,71,0.00,,,0.00,Wunderground v.1.15,2013-01-23 13:57:00,
2013-01-23 09:00:00,67.1,57.4,30.25,WNW,283,3.0,5.0,71,0.00,,,0.00,Wunderground v.1.15,2013-01-23 14:00:00,
2013-01-23 09:01:00,67.1,57.4,30.25,WNW,291,2.0,5.0,71,0.00,,,0.00,Wunderground v.1.15,2013-01-23 14:01:00,
2013-01-23 09:02:00,67.2,57.5,30.25,NNW,336,4.0,5.0,71,0.00,,,0.00,Wunderground v.1.15,2013-01-23 14:02:00,
2013-01-23 09:05:00,67.5,57.8,30.25,NW,321,2.0,7.0,71,0.00,,,0.00,Wunderground v.1.15,2013-01-23 14:05:00,
2013-01-23 09:06:00,67.5,57.8,30.25,NW,321,1.0,7.0,71,0.00,,,0.00,Wunderground v.1.15,2013-01-23 14:06:00,
2013-01-23 09:07:00,67.6,57.5,30.25,NW,304,2.0,7.0,70,0.00,,,0.00,Wunderground v.1.15,2013-01-23 14:07:00,
2013-01-23 09:10:00,67.9,57.8,30.26,WNW,290,2.0,5.0,70,0.00,,,0.00,Wunderground v.1.15,2013-01-23 14:10:00,
2013-01-23 09:11:00,67.9,57.8,30.26,WNW,291,1.0,5.0,70,0.00,,,0.00,Wunderground v.1.15,2013-01-23 14:11:00,
2013-01-23 09:12:00,68.0,57.4,30.26,NNW,332,4.0,6.0,69,0.00,,,0.00,Wunderground v.1.15,2013-01-23 14:12:00,
2013-01-23 09:16:00,68.3,58.1,30.26,WNW,299,3.0,10.0,70,0.00,,,0.00,Wunderground v.1.15,2013-01-23 14:16:00,
2013-01-23 09:17:00,68.4,58.2,30.26,NNW,347,1.0,10.0,70,0.00,,,0.00,Wunderground v.1.15,2013-01-23 14:17:00,
2013-01-23 09:21:00,68.5,57.9,30.26,NW,305,3.0,5.0,69,0.00,,,0.00,Wunderground v.1.15,2013-01-23 14:21:00,
2013-01-23 09:22:00,68.6,58.0,30.26,NW,321,2.0,5.0,69,0.00,,,0.00,Wunderground v.1.15,2013-01-23 14:22:00,
2013-01-23 09:26:00,68.9,58.3,30.25,NW,312,1.0,6.0,69,0.00,,,0.00,Wunderground v.1.15,2013-01-23 14:26:00,
2013-01-23 09:27:00,68.9,57.9,30.25,NNW,327,2.0,6.0,68,0.00,,,0.00,Wunderground v.1.15,2013-01-23 14:27:00,
2013-01-23 09:31:00,69.2,58.2,30.26,WNW,293,3.0,4.0,68,0.00,,,0.00,Wunderground v.1.15,2013-01-23 14:31:00,
2013-01-23 09:32:00,69.2,58.2,30.26,WNW,298,2.0,4.0,68,0.00,,,0.00,Wunderground v.1.15,2013-01-23 14:32:00,
2013-01-23 09:36:00,69.5,58.5,30.26,West,274,2.0,5.0,68,0.00,,,0.00,Wunderground v.1.15,2013-01-23 14:36:00,
2013-01-23 09:37:00,69.5,58.5,30.26,WNW,291,6.0,8.0,68,0.00,,,0.00,Wunderground v.1.15,2013-01-23 14:37:00,
2013-01-23 09:38:00,69.5,58.5,30.26,West,278,3.0,9.0,68,0.00,,,0.00,Wunderground v.1.15,2013-01-23 14:38:00,
2013-01-23 09:42:00,69.7,58.3,30.26,NW,314,3.0,7.0,67,0.00,,,0.00,Wunderground v.1.15,2013-01-23 14:42:00,
2013-01-23 09:43:00,69.8,58.8,30.27,NNW,333,2.0,7.0,68,0.00,,,0.00,Wunderground v.1.15,2013-01-23 14:43:00,
2013-01-23 09:47:00,70.0,58.5,30.27,NNW,330,3.0,7.0,67,0.00,,,0.00,Wunderground v.1.15,2013-01-23 14:47:00,
2013-01-23 09:48:00,70.1,58.2,30.27,NW,319,2.0,7.0,66,0.00,,,0.00,Wunderground v.1.15,2013-01-23 14:48:00,
2013-01-23 09:49:00,70.1,58.2,30.27,WNW,302,2.0,8.0,66,0.00,,,0.00,Wunderground v.1.15,2013-01-23 14:49:00,
2013-01-23 09:51:00,70.3,58.8,30.27,West,278,3.0,7.0,67,0.00,,,0.00,Wunderground v.1.15,2013-01-23 14:51:00,
2013-01-23 09:52:00,70.4,58.9,30.27,West,279,3.0,7.0,67,0.00,,,0.00,Wunderground v.1.15,2013-01-23 14:52:00,
2013-01-23 09:53:00,70.4,58.5,30.27,WNW,300,3.0,7.0,66,0.00,,,0.00,Wunderground v.1.15,2013-01-23 14:53:00,
2013-01-23 09:54:00,70.5,58.6,30.27,NNW,328,6.0,7.0,66,0.00,,,0.00,Wunderground v.1.15,2013-01-23 14:54:00,
2013-01-23 09:57:00,70.7,58.8,30.27,NW,318,3.0,7.0,66,0.00,,,0.00,Wunderground v.1.15,2013-01-23 14:57:00,
2013-01-23 09:59:00,70.7,58.8,30.27,NW,309,3.0,7.0,66,0.00,,,0.00,Wunderground v.1.15,2013-01-23 14:59:00,
2013-01-23 10:02:00,70.9,58.5,30.27,NNW,347,0.0,7.0,65,0.00,,,0.00,Wunderground v.1.15,2013-01-23 15:02:00,
2013-01-23 10:03:00,70.9,58.5,30.27,NNW,342,3.0,7.0,65,0.00,,,0.00,Wunderground v.1.15,2013-01-23 15:03:00,
2013-01-23 10:04:00,71.0,58.6,30.27,WNW,294,3.0,7.0,65,0.00,,,0.00,Wunderground v.1.15,2013-01-23 15:04:00,
2013-01-23 10:07:00,71.1,59.2,30.27,WNW,298,2.0,7.0,66,0.00,,,0.00,Wunderground v.1.15,2013-01-23 15:07:00,
2013-01-23 10:09:00,71.2,59.3,30.27,NW,310,3.0,7.0,66,0.00,,,0.00,Wunderground v.1.15,2013-01-23 15:09:00,
2013-01-23 10:12:00,71.2,58.8,30.27,NNW,342,5.0,7.0,65,0.00,,,0.00,Wunderground v.1.15,2013-01-23 15:12:00,
2013-01-23 10:14:00,71.2,58.8,30.26,NW,318,4.0,7.0,65,0.00,,,0.00,Wunderground v.1.15,2013-01-23 15:14:00,
2013-01-23 10:17:00,71.1,58.3,30.26,NNW,327,1.0,7.0,64,0.00,,,0.00,Wunderground v.1.15,2013-01-23 15:17:00,
2013-01-23 10:19:00,71.1,58.3,30.26,NW,315,3.0,7.0,64,0.00,,,0.00,Wunderground v.1.15,2013-01-23 15:19:00,
2013-01-23 10:22:00,71.0,58.2,30.27,NW,306,1.0,6.0,64,0.00,,,0.00,Wunderground v.1.15,2013-01-23 15:22:00,
2013-01-23 10:24:00,71.0,58.2,30.27,NW,306,5.0,6.0,64,0.00,,,0.00,Wunderground v.1.15,2013-01-23 15:24:00,
2013-01-23 10:25:00,71.0,58.2,30.27,NNW,331,4.0,6.0,64,0.00,,,0.00,Wunderground v.1.15,2013-01-23 15:25:00,
2013-01-23 10:27:00,70.9,58.5,30.27,NW,305,4.0,6.0,65,0.00,,,0.00,Wunderground v.1.15,2013-01-23 15:27:00,
2013-01-23 10:29:00,70.9,58.5,30.27,NW,318,3.0,3.0,65,0.00,,,0.00,Wunderground v.1.15,2013-01-23 15:29:00,
2013-01-23 10:30:00,70.9,58.5,30.27,NW,311,4.0,5.0,65,0.00,,,0.00,Wunderground v.1.15,2013-01-23 15:30:00,
2013-01-23 10:32:00,70.9,59.0,30.27,West,281,4.0,5.0,66,0.00,,,0.00,Wunderground v.1.15,2013-01-23 15:32:00,
2013-01-23 10:35:00,70.8,58.9,30.27,WNW,295,3.0,5.0,66,0.00,,,0.00,Wunderground v.1.15,2013-01-23 15:35:00,
2013-01-23 10:38:00,70.9,59.0,30.27,NW,325,4.0,7.0,66,0.00,,,0.00,Wunderground v.1.15,2013-01-23 15:38:00,
2013-01-23 10:40:00,70.9,58.5,30.27,NNW,329,4.0,4.0,65,0.00,,,0.00,Wunderground v.1.15,2013-01-23 15:40:00,
2013-01-23 10:43:00,70.9,59.0,30.27,WNW,290,2.0,5.0,66,0.00,,,0.00,Wunderground v.1.15,2013-01-23 15:43:00,
2013-01-23 10:45:00,71.0,59.1,30.27,NW,313,1.0,5.0,66,0.00,,,0.00,Wunderground v.1.15,2013-01-23 15:45:00,
2013-01-23 10:46:00,71.0,59.1,30.27,NW,313,1.0,5.0,66,0.00,,,0.00,Wunderground v.1.15,2013-01-23 15:46:00,
2013-01-23 10:48:00,71.0,58.6,30.27,NNW,336,4.0,5.0,65,0.00,,,0.00,Wunderground v.1.15,2013-01-23 15:48:00,
2013-01-23 10:51:00,70.9,59.0,30.27,NNW,336,3.0,4.0,66,0.00,,,0.00,Wunderground v.1.15,2013-01-23 15:51:00,
2013-01-23 10:52:00,70.9,59.0,30.27,NNW,331,5.0,7.0,66,0.00,,,0.00,Wunderground v.1.15,2013-01-23 15:52:00,
2013-01-23 10:54:00,70.9,59.0,30.27,NNW,337,2.0,7.0,66,0.00,,,0.00,Wunderground v.1.15,2013-01-23 15:54:00,
2013-01-23 10:56:00,71.0,59.1,30.27,WNW,293,4.0,7.0,66,0.00,,,0.00,Wunderground v.1.15,2013-01-23 15:56:00,
2013-01-23 10:57:00,71.1,59.6,30.27,NW,310,2.0,7.0,67,0.00,,,0.00,Wunderground v.1.15,2013-01-23 15:57:00,
2013-01-23 10:59:00,71.2,59.3,30.27,WNW,298,1.0,7.0,66,0.00,,,0.00,Wunderground v.1.15,2013-01-23 15:59:00,
2013-01-23 11:01:00,71.3,59.4,30.27,NW,323,5.0,6.0,66,0.00,,,0.00,Wunderground v.1.15,2013-01-23 16:01:00,
2013-01-23 11:02:00,71.5,59.5,30.27,NNW,342,4.0,6.0,66,0.00,,,0.00,Wunderground v.1.15,2013-01-23 16:02:00,
2013-01-23 11:04:00,71.7,59.7,30.27,NW,319,2.0,6.0,66,0.00,,,0.00,Wunderground v.1.15,2013-01-23 16:04:00,
2013-01-23 11:06:00,72.0,59.2,30.27,NW,326,1.0,6.0,64,0.00,,,0.00,Wunderground v.1.15,2013-01-23 16:06:00,
2013-01-23 11:07:00,72.1,59.7,30.27,NNW,329,2.0,6.0,65,0.00,,,0.00,Wunderground v.1.15,2013-01-23 16:07:00,
2013-01-23 11:09:00,72.5,60.1,30.27,NW,314,2.0,7.0,65,0.00,,,0.00,Wunderground v.1.15,2013-01-23 16:09:00,
2013-01-23 11:11:00,72.7,59.8,30.27,NNW,342,1.0,10.0,64,0.00,,,0.00,Wunderground v.1.15,2013-01-23 16:11:00,
2013-01-23 11:12:00,72.9,59.6,30.27,NW,304,7.0,10.0,63,0.00,,,0.00,Wunderground v.1.15,2013-01-23 16:12:00,
2013-01-23 11:14:00,73.1,59.8,30.27,NW,312,4.0,10.0,63,0.00,,,0.00,Wunderground v.1.15,2013-01-23 16:14:00,
2013-01-23 11:16:00,73.3,59.5,30.27,WNW,302,2.0,10.0,62,0.00,,,0.00,Wunderground v.1.15,2013-01-23 16:16:00,
2013-01-23 11:17:00,73.4,59.6,30.26,NW,310,4.0,10.0,62,0.00,,,0.00,Wunderground v.1.15,2013-01-23 16:17:00,
2013-01-23 11:19:00,73.5,59.7,30.26,North,352,4.0,4.0,62,0.00,,,0.00,Wunderground v.1.15,2013-01-23 16:19:00,
2013-01-23 11:21:00,73.4,59.1,30.26,North,4,3.0,7.0,61,0.00,,,0.00,Wunderground v.1.15,2013-01-23 16:21:00,
2013-01-23 11:22:00,73.4,59.1,30.26,NNE,15,5.0,7.0,61,0.00,,,0.00,Wunderground v.1.15,2013-01-23 16:22:00,
2013-01-23 11:24:00,73.0,59.2,30.26,NNW,347,1.0,7.0,62,0.00,,,0.00,Wunderground v.1.15,2013-01-23 16:24:00,
2013-01-23 11:26:00,72.9,59.6,30.26,NNW,342,3.0,8.0,63,0.00,,,0.00,Wunderground v.1.15,2013-01-23 16:26:00,
2013-01-23 11:27:00,72.8,59.5,30.26,NNW,327,3.0,8.0,63,0.00,,,0.00,Wunderground v.1.15,2013-01-23 16:27:00,
2013-01-23 11:30:00,72.8,59.9,30.26,NNW,336,2.0,7.0,64,0.00,,,0.00,Wunderground v.1.15,2013-01-23 16:30:00,
2013-01-23 11:32:00,72.9,59.6,30.26,NNW,327,4.0,7.0,63,0.00,,,0.00,Wunderground v.1.15,2013-01-23 16:32:00,
2013-01-23 11:35:00,72.9,57.3,30.26,NNE,14,5.0,9.0,58,0.00,,,0.00,Wunderground v.1.15,2013-01-23 16:35:00,
2013-01-23 11:37:00,72.9,56.8,30.26,NNE,19,5.0,11.0,57,0.00,,,0.00,Wunderground v.1.15,2013-01-23 16:37:00,
2013-01-23 11:40:00,72.9,56.3,30.26,NNE,12,3.0,7.0,56,0.00,,,0.00,Wunderground v.1.15,2013-01-23 16:40:00,
2013-01-23 11:42:00,73.0,57.3,30.25,North,356,4.0,7.0,58,0.00,,,0.00,Wunderground v.1.15,2013-01-23 16:42:00,
2013-01-23 11:46:00,73.3,56.2,30.25,NE,42,3.0,11.0,55,0.00,,,0.00,Wunderground v.1.15,2013-01-23 16:46:00,
2013-01-23 11:47:00,73.3,56.2,30.25,NNE,28,2.0,11.0,55,0.00,,,0.00,Wunderground v.1.15,2013-01-23 16:47:00,
2013-01-23 11:48:00,73.4,56.7,30.25,NE,38,3.0,12.0,56,0.00,,,0.00,Wunderground v.1.15,2013-01-23 16:48:00,
2013-01-23 11:51:00,73.5,56.3,30.25,NNE,23,3.0,11.0,55,0.00,,,0.00,Wunderground v.1.15,2013-01-23 16:51:00,
2013-01-23 11:52:00,73.5,55.8,30.25,North,5,5.0,11.0,54,0.00,,,0.00,Wunderground v.1.15,2013-01-23 16:52:00,
2013-01-23 11:54:00,73.4,55.7,30.25,NNW,347,2.0,11.0,54,0.00,,,0.00,Wunderground v.1.15,2013-01-23 16:54:00,
2013-01-23 11:56:00,73.2,56.1,30.25,NNE,31,5.0,11.0,55,0.00,,,0.00,Wunderground v.1.15,2013-01-23 16:56:00,
2013-01-23 11:57:00,73.2,56.1,30.25,NNE,14,5.0,11.0,55,0.00,,,0.00,Wunderground v.1.15,2013-01-23 16:57:00,
2013-01-23 11:59:00,73.3,56.2,30.24,NE,38,6.0,11.0,55,0.00,,,0.00,Wunderground v.1.15,2013-01-23 16:59:00,
2013-01-23 12:01:00,73.4,56.2,30.25,NE,46,8.0,8.0,55,0.00,,,0.00,Wunderground v.1.15,2013-01-23 17:01:00,
2013-01-23 12:02:00,73.4,56.7,30.24,NNW,342,4.0,8.0,56,0.00,,,0.00,Wunderground v.1.15,2013-01-23 17:02:00,
2013-01-23 12:03:00,73.5,57.3,30.25,NW,305,5.0,8.0,57,0.00,,,0.00,Wunderground v.1.15,2013-01-23 17:03:00,
2013-01-23 12:04:00,73.6,56.9,30.24,NNE,28,2.0,8.0,56,0.00,,,0.00,Wunderground v.1.15,2013-01-23 17:04:00,
2013-01-23 12:06:00,73.9,57.2,30.25,NNE,19,1.0,9.0,56,0.00,,,0.00,Wunderground v.1.15,2013-01-23 17:06:00,
2013-01-23 12:07:00,74.0,57.3,30.25,NE,39,3.0,9.0,56,0.00,,,0.00,Wunderground v.1.15,2013-01-23 17:07:00,
2013-01-23 12:08:00,74.0,57.8,30.24,NNE,13,6.0,9.0,57,0.00,,,0.00,Wunderground v.1.15,2013-01-23 17:08:00,
2013-01-23 12:09:00,74.1,57.9,30.24,NNE,32,4.0,10.0,57,0.00,,,0.00,Wunderground v.1.15,2013-01-23 17:09:00,
2013-01-23 12:12:00,74.1,56.9,30.24,North,1,5.0,12.0,55,0.00,,,0.00,Wunderground v.1.15,2013-01-23 17:12:00,
2013-01-23 12:13:00,74.0,56.3,30.24,North,6,5.0,12.0,54,0.00,,,0.00,Wunderground v.1.15,2013-01-23 17:13:00,
2013-01-23 12:14:00,74.0,56.3,30.24,North,352,5.0,12.0,54,0.00,,,0.00,Wunderground v.1.15,2013-01-23 17:14:00,
2013-01-23 12:17:00,73.8,57.1,30.24,NE,39,3.0,12.0,56,0.00,,,0.00,Wunderground v.1.15,2013-01-23 17:17:00,
2013-01-23 12:18:00,73.9,57.2,30.24,North,2,2.0,12.0,56,0.00,,,0.00,Wunderground v.1.15,2013-01-23 17:18:00,
2013-01-23 12:19:00,74.0,58.3,30.24,NE,50,4.0,5.0,58,0.00,,,0.00,Wunderground v.1.15,2013-01-23 17:19:00,
2013-01-23 12:22:00,74.2,57.5,30.24,ENE,59,7.0,10.0,56,0.00,,,0.00,Wunderground v.1.15,2013-01-23 17:22:00,
2013-01-23 12:23:00,74.3,57.6,30.24,NNE,15,6.0,11.0,56,0.00,,,0.00,Wunderground v.1.15,2013-01-23 17:23:00,
2013-01-23 12:24:00,74.4,57.7,30.24,North,358,6.0,11.0,56,0.00,,,0.00,Wunderground v.1.15,2013-01-23 17:24:00,
2013-01-23 12:27:00,74.2,57.0,30.24,North,1,6.0,11.0,55,0.00,,,0.00,Wunderground v.1.15,2013-01-23 17:27:00,
2013-01-23 12:28:00,74.0,57.3,30.24,ENE,58,3.0,11.0,56,0.00,,,0.00,Wunderground v.1.15,2013-01-23 17:28:00,
2013-01-23 12:29:00,73.9,57.2,30.23,NNE,31,6.0,6.0,56,0.00,,,0.00,Wunderground v.1.15,2013-01-23 17:29:00,
2013-01-23 12:32:00,73.9,58.2,30.23,NNW,336,9.0,10.0,58,0.00,,,0.00,Wunderground v.1.15,2013-01-23 17:32:00,
2013-01-23 12:33:00,73.9,57.2,30.23,NE,36,7.0,10.0,56,0.00,,,0.00,Wunderground v.1.15,2013-01-23 17:33:00,
2013-01-23 12:34:00,73.8,57.1,30.23,NE,39,5.0,12.0,56,0.00,,,0.00,Wunderground v.1.15,2013-01-23 17:34:00,
2013-01-23 12:37:00,73.7,57.5,30.23,NE,35,3.0,12.0,57,0.00,,,0.00,Wunderground v.1.15,2013-01-23 17:37:00,
2013-01-23 12:38:00,73.7,57.5,30.23,NW,323,3.0,12.0,57,0.00,,,0.00,Wunderground v.1.15,2013-01-23 17:38:00,
2013-01-23 12:40:00,73.8,57.6,30.23,NNW,335,3.0,7.0,57,0.00,,,0.00,Wunderground v.1.15,2013-01-23 17:40:00,
2013-01-23 12:43:00,74.2,58.5,30.23,NNE,32,3.0,10.0,58,0.00,,,0.00,Wunderground v.1.15,2013-01-23 17:43:00,
2013-01-23 12:45:00,74.4,58.2,30.23,North,360,4.0,12.0,57,0.00,,,0.00,Wunderground v.1.15,2013-01-23 17:45:00,
2013-01-23 12:48:00,74.8,57.5,30.23,ENE,63,6.0,12.0,55,0.00,,,0.00,Wunderground v.1.15,2013-01-23 17:48:00,
2013-01-23 12:49:00,75.0,57.2,30.23,NE,46,3.0,12.0,54,0.00,,,0.00,Wunderground v.1.15,2013-01-23 17:49:00,
2013-01-23 12:50:00,75.0,57.7,30.23,North,11,6.0,7.0,55,0.00,,,0.00,Wunderground v.1.15,2013-01-23 17:50:00,
2013-01-23 12:53:00,75.1,57.3,30.23,NNW,342,6.0,10.0,54,0.00,,,0.00,Wunderground v.1.15,2013-01-23 17:53:00,
2013-01-23 12:54:00,75.0,57.2,30.23,North,9,1.0,13.0,54,0.00,,,0.00,Wunderground v.1.15,2013-01-23 17:54:00,
2013-01-23 12:55:00,75.0,57.2,30.23,NE,54,5.0,13.0,54,0.00,,,0.00,Wunderground v.1.15,2013-01-23 17:55:00,
2013-01-23 12:58:00,74.9,58.1,30.23,NNE,25,4.0,13.0,56,0.00,,,0.00,Wunderground v.1.15,2013-01-23 17:58:00,
2013-01-23 13:00:00,74.9,57.6,30.23,NNW,347,3.0,5.0,55,0.00,,,0.00,Wunderground v.1.15,2013-01-23 18:00:00,
2013-01-23 13:03:00,74.8,57.0,30.22,NNE,31,6.0,8.0,54,0.00,,,0.00,Wunderground v.1.15,2013-01-23 18:03:00,
2013-01-23 13:05:00,74.8,57.5,30.22,NNW,331,3.0,10.0,55,0.00,,,0.00,Wunderground v.1.15,2013-01-23 18:05:00,
2013-01-23 13:08:00,74.8,58.5,30.23,NNE,22,4.0,10.0,57,0.00,,,0.00,Wunderground v.1.15,2013-01-23 18:08:00,
2013-01-23 13:09:00,74.8,58.5,30.22,NE,55,3.0,10.0,57,0.00,,,0.00,Wunderground v.1.15,2013-01-23 18:09:00,
2013-01-23 13:10:00,74.7,58.0,30.22,NNE,24,9.0,10.0,56,0.00,,,0.00,Wunderground v.1.15,2013-01-23 18:10:00,
2013-01-23 13:13:00,74.3,57.6,30.22,North,1,9.0,10.0,56,0.00,,,0.00,Wunderground v.1.15,2013-01-23 18:13:00,
2013-01-23 13:15:00,74.3,58.1,30.22,ENE,65,5.0,10.0,57,0.00,,,0.00,Wunderground v.1.15,2013-01-23 18:15:00,
2013-01-23 13:16:00,74.3,57.6,30.22,NNE,20,5.0,10.0,56,0.00,,,0.00,Wunderground v.1.15,2013-01-23 18:16:00,
2013-01-23 13:18:00,74.6,58.4,30.22,NNW,347,2.0,10.0,57,0.00,,,0.00,Wunderground v.1.15,2013-01-23 18:18:00,
2013-01-23 13:19:00,74.6,58.4,30.22,NNE,17,3.0,10.0,57,0.00,,,0.00,Wunderground v.1.15,2013-01-23 18:19:00,
2013-01-23 13:20:00,74.7,58.0,30.22,NE,46,4.0,7.0,56,0.00,,,0.00,Wunderground v.1.15,2013-01-23 18:20:00,
2013-01-23 13:21:00,74.6,57.4,30.22,North,9,4.0,7.0,55,0.00,,,0.00,Wunderground v.1.15,2013-01-23 18:21:00,
2013-01-23 13:24:00,74.7,58.0,30.21,East,81,5.0,7.0,56,0.00,,,0.00,Wunderground v.1.15,2013-01-23 18:24:00,
2013-01-23 13:26:00,74.8,58.1,30.21,NNE,25,3.0,10.0,56,0.00,,,0.00,Wunderground v.1.15,2013-01-23 18:26:00,
2013-01-23 13:29:00,74.7,57.5,30.21,NE,52,4.0,12.0,55,0.00,,,0.00,Wunderground v.1.15,2013-01-23 18:29:00,
2013-01-23 13:31:00,74.7,57.5,30.21,North,4,3.0,10.0,55,0.00,,,0.00,Wunderground v.1.15,2013-01-23 18:31:00,
2013-01-23 13:34:00,74.8,58.1,30.21,East,89,6.0,10.0,56,0.00,,,0.00,Wunderground v.1.15,2013-01-23 18:34:00,
2013-01-23 13:36:00,75.1,57.8,30.21,North,10,3.0,10.0,55,0.00,,,0.00,Wunderground v.1.15,2013-01-23 18:36:00,
2013-01-23 13:39:00,75.3,58.5,30.21,NE,56,4.0,10.0,56,0.00,,,0.00,Wunderground v.1.15,2013-01-23 18:39:00,
2013-01-23 13:41:00,75.5,58.2,30.21,WNW,302,1.0,6.0,55,0.00,,,0.00,Wunderground v.1.15,2013-01-23 18:41:00,
2013-01-23 13:44:00,75.4,57.6,30.21,NNW,328,2.0,10.0,54,0.00,,,0.00,Wunderground v.1.15,2013-01-23 18:44:00,
2013-01-23 13:45:00,75.4,57.6,30.21,ENE,78,5.0,10.0,54,0.00,,,0.00,Wunderground v.1.15,2013-01-23 18:45:00,
2013-01-23 13:46:00,75.2,57.4,30.21,NNW,347,5.0,10.0,54,0.00,,,0.00,Wunderground v.1.15,2013-01-23 18:46:00,
2013-01-23 13:49:00,75.0,56.7,30.20,ENE,61,10.0,10.0,53,0.00,,,0.00,Wunderground v.1.15,2013-01-23 18:49:00,
2013-01-23 13:50:00,75.0,57.2,30.20,ENE,57,7.0,10.0,54,0.00,,,0.00,Wunderground v.1.15,2013-01-23 18:50:00,
2013-01-23 13:52:00,75.1,57.3,30.20,NE,49,11.0,11.0,54,0.00,,,0.00,Wunderground v.1.15,2013-01-23 18:52:00,
2013-01-23 13:54:00,75.0,57.2,30.20,NNE,29,7.0,15.0,54,0.00,,,0.00,Wunderground v.1.15,2013-01-23 18:54:00,
2013-01-23 13:55:00,75.0,57.2,30.20,ENE,63,6.0,15.0,54,0.00,,,0.00,Wunderground v.1.15,2013-01-23 18:55:00,
2013-01-23 13:57:00,74.9,56.6,30.20,NNE,21,7.0,15.0,53,0.00,,,0.00,Wunderground v.1.15,2013-01-23 18:57:00,
2013-01-23 13:59:00,74.9,57.1,30.20,North,360,9.0,15.0,54,0.00,,,0.00,Wunderground v.1.15,2013-01-23 18:59:00,
2013-01-23 14:01:00,74.9,56.6,30.20,NE,54,4.0,13.0,53,0.00,,,0.00,Wunderground v.1.15,2013-01-23 19:01:00,
2013-01-23 14:02:00,74.9,57.1,30.21,NNE,31,5.0,13.0,54,0.00,,,0.00,Wunderground v.1.15,2013-01-23 19:02:00,
2013-01-23 14:04:00,74.7,57.5,30.21,NNE,22,2.0,13.0,55,0.00,,,0.00,Wunderground v.1.15,2013-01-23 19:04:00,
2013-01-23 14:06:00,74.6,57.4,30.21,NNW,327,2.0,13.0,55,0.00,,,0.00,Wunderground v.1.15,2013-01-23 19:06:00,
2013-01-23 14:07:00,74.5,57.8,30.21,NNW,337,7.0,13.0,56,0.00,,,0.00,Wunderground v.1.15,2013-01-23 19:07:00,
2013-01-23 14:09:00,74.2,57.0,30.21,NNE,12,3.0,5.0,55,0.00,,,0.00,Wunderground v.1.15,2013-01-23 19:09:00,
2013-01-23 14:11:00,74.1,57.4,30.21,ENE,64,6.0,9.0,56,0.00,,,0.00,Wunderground v.1.15,2013-01-23 19:11:00,
2013-01-23 14:12:00,74.1,56.9,30.21,North,11,3.0,12.0,55,0.00,,,0.00,Wunderground v.1.15,2013-01-23 19:12:00,
2013-01-23 14:14:00,74.1,57.4,30.21,NNW,342,5.0,12.0,56,0.00,,,0.00,Wunderground v.1.15,2013-01-23 19:14:00,
2013-01-23 14:16:00,74.1,57.4,30.20,North,5,6.0,12.0,56,0.00,,,0.00,Wunderground v.1.15,2013-01-23 19:16:00,
2013-01-23 14:17:00,74.1,56.9,30.21,NNE,21,3.0,12.0,55,0.00,,,0.00,Wunderground v.1.15,2013-01-23 19:17:00,
2013-01-23 14:20:00,74.3,57.6,30.21,NNW,342,3.0,5.0,56,0.00,,,0.00,Wunderground v.1.15,2013-01-23 19:20:00,
2013-01-23 14:21:00,74.4,57.7,30.20,NNE,21,4.0,6.0,56,0.00,,,0.00,Wunderground v.1.15,2013-01-23 19:21:00,
2013-01-23 14:22:00,74.4,57.2,30.20,NNE,22,6.0,7.0,55,0.00,,,0.00,Wunderground v.1.15,2013-01-23 19:22:00,
2013-01-23 14:25:00,74.5,57.3,30.20,North,356,3.0,9.0,55,0.00,,,0.00,Wunderground v.1.15,2013-01-23 19:25:00,
2013-01-23 14:26:00,74.4,57.2,30.21,ENE,67,6.0,9.0,55,0.00,,,0.00,Wunderground v.1.15,2013-01-23 19:26:00,
2013-01-23 14:27:00,74.5,56.8,30.21,NE,41,5.0,10.0,54,0.00,,,0.00,Wunderground v.1.15,2013-01-23 19:27:00,
2013-01-23 14:30:00,74.7,57.5,30.21,NNE,20,14.0,14.0,55,0.00,,,0.00,Wunderground v.1.15,2013-01-23 19:30:00,
2013-01-23 14:31:00,74.7,56.9,30.21,NNE,30,3.0,14.0,54,0.00,,,0.00,Wunderground v.1.15,2013-01-23 19:31:00,
2013-01-23 14:32:00,74.7,56.9,30.21,NNW,347,5.0,14.0,54,0.00,,,0.00,Wunderground v.1.15,2013-01-23 19:32:00,
2013-01-23 14:33:00,74.7,56.9,30.21,NNW,342,4.0,14.0,54,0.00,,,0.00,Wunderground v.1.15,2013-01-23 19:33:00,
2013-01-23 14:35:00,74.7,56.9,30.21,NNW,336,6.0,14.0,54,0.00,,,0.00,Wunderground v.1.15,2013-01-23 19:35:00,
2013-01-23 14:37:00,74.7,56.4,30.21,NNE,19,3.0,14.0,53,0.00,,,0.00,Wunderground v.1.15,2013-01-23 19:37:00,
2013-01-23 14:38:00,74.7,56.4,30.21,NNW,347,1.0,14.0,53,0.00,,,0.00,Wunderground v.1.15,2013-01-23 19:38:00,
2013-01-23 14:40:00,74.6,56.3,30.21,NNE,15,2.0,5.0,53,0.00,,,0.00,Wunderground v.1.15,2013-01-23 19:40:00,
2013-01-23 14:42:00,74.6,56.9,30.21,NE,55,3.0,7.0,54,0.00,,,0.00,Wunderground v.1.15,2013-01-23 19:42:00,
2013-01-23 14:43:00,74.6,56.3,30.21,NE,50,7.0,7.0,53,0.00,,,0.00,Wunderground v.1.15,2013-01-23 19:43:00,
2013-01-23 14:45:00,74.7,56.9,30.21,NNW,332,3.0,9.0,54,0.00,,,0.00,Wunderground v.1.15,2013-01-23 19:45:00,
2013-01-23 14:47:00,74.8,57.0,30.20,NNE,27,5.0,9.0,54,0.00,,,0.00,Wunderground v.1.15,2013-01-23 19:47:00,
2013-01-23 14:48:00,74.8,56.5,30.20,NNE,23,6.0,9.0,53,0.00,,,0.00,Wunderground v.1.15,2013-01-23 19:48:00,
2013-01-23 14:50:00,74.7,55.9,30.20,NE,49,4.0,7.0,52,0.00,,,0.00,Wunderground v.1.15,2013-01-23 19:50:00,
2013-01-23 14:52:00,74.8,56.5,30.20,NE,43,4.0,8.0,53,0.00,,,0.00,Wunderground v.1.15,2013-01-23 19:52:00,
2013-01-23 14:53:00,74.8,56.5,30.20,NNE,20,5.0,8.0,53,0.00,,,0.00,Wunderground v.1.15,2013-01-23 19:53:00,
2013-01-23 14:56:00,74.8,56.5,30.20,NNW,337,9.0,10.0,53,0.00,,,0.00,Wunderground v.1.15,2013-01-23 19:56:00,
2013-01-23 14:57:00,74.8,56.5,30.20,NE,43,2.0,10.0,53,0.00,,,0.00,Wunderground v.1.15,2013-01-23 19:57:00,
2013-01-23 14:58:00,74.8,56.5,30.20,North,9,4.0,10.0,53,0.00,,,0.00,Wunderground v.1.15,2013-01-23 19:58:00,
2013-01-23 14:59:00,74.8,57.0,30.20,East,79,10.0,10.0,54,0.00,,,0.00,Wunderground v.1.15,2013-01-23 19:59:00,
2013-01-23 15:01:00,74.8,56.5,30.20,ENE,67,5.0,7.0,53,0.00,,,0.00,Wunderground v.1.15,2013-01-23 20:01:00,
2013-01-23 15:02:00,74.8,57.0,30.20,NE,42,5.0,9.0,54,0.00,,,0.00,Wunderground v.1.15,2013-01-23 20:02:00,
2013-01-23 15:03:00,74.7,57.5,30.20,NNE,15,2.0,9.0,55,0.00,,,0.00,Wunderground v.1.15,2013-01-23 20:03:00,
2013-01-23 15:04:00,74.7,57.5,30.20,NNE,14,1.0,9.0,55,0.00,,,0.00,Wunderground v.1.15,2013-01-23 20:04:00,
2013-01-23 15:06:00,74.7,57.5,30.20,NNE,13,6.0,9.0,55,0.00,,,0.00,Wunderground v.1.15,2013-01-23 20:06:00,
2013-01-23 15:07:00,74.7,56.9,30.20,NE,53,7.0,9.0,54,0.00,,,0.00,Wunderground v.1.15,2013-01-23 20:07:00,
2013-01-23 15:09:00,74.6,56.3,30.20,ENE,73,6.0,10.0,53,0.00,,,0.00,Wunderground v.1.15,2013-01-23 20:09:00,
2013-01-23 15:12:00,74.6,56.9,30.20,NNE,20,1.0,7.0,54,0.00,,,0.00,Wunderground v.1.15,2013-01-23 20:12:00,
2013-01-23 15:13:00,74.6,56.9,30.20,NNW,347,2.0,7.0,54,0.00,,,0.00,Wunderground v.1.15,2013-01-23 20:13:00,
2013-01-23 15:14:00,74.5,56.8,30.20,NE,48,10.0,10.0,54,0.00,,,0.00,Wunderground v.1.15,2013-01-23 20:14:00,
2013-01-23 15:17:00,74.4,56.7,30.20,NNW,333,3.0,12.0,54,0.00,,,0.00,Wunderground v.1.15,2013-01-23 20:17:00,
2013-01-23 15:18:00,74.3,57.1,30.20,NE,43,4.0,12.0,55,0.00,,,0.00,Wunderground v.1.15,2013-01-23 20:18:00,
2013-01-23 15:19:00,74.3,56.6,30.20,ENE,66,2.0,12.0,54,0.00,,,0.00,Wunderground v.1.15,2013-01-23 20:19:00,
2013-01-23 15:22:00,74.4,57.2,30.20,NNE,21,6.0,10.0,55,0.00,,,0.00,Wunderground v.1.15,2013-01-23 20:22:00,
2013-01-23 15:23:00,74.4,57.2,30.20,NNW,335,4.0,10.0,55,0.00,,,0.00,Wunderground v.1.15,2013-01-23 20:23:00,
2013-01-23 15:24:00,74.4,56.7,30.20,NE,50,1.0,10.0,54,0.00,,,0.00,Wunderground v.1.15,2013-01-23 20:24:00,
2013-01-23 15:28:00,74.3,56.6,30.20,ENE,61,3.0,10.0,54,0.00,,,0.00,Wunderground v.1.15,2013-01-23 20:28:00,
2013-01-23 15:29:00,74.4,56.7,30.20,NNE,23,6.0,6.0,54,0.00,,,0.00,Wunderground v.1.15,2013-01-23 20:29:00,
2013-01-23 15:33:00,74.4,56.7,30.21,NNE,33,2.0,6.0,54,0.00,,,0.00,Wunderground v.1.15,2013-01-23 20:33:00,
2013-01-23 15:35:00,74.3,56.1,30.21,NE,44,7.0,10.0,53,0.00,,,0.00,Wunderground v.1.15,2013-01-23 20:35:00,
2013-01-23 15:38:00,74.1,56.4,30.21,NNE,29,6.0,11.0,54,0.00,,,0.00,Wunderground v.1.15,2013-01-23 20:38:00,
2013-01-23 15:39:00,74.0,56.3,30.21,NNW,327,7.0,11.0,54,0.00,,,0.00,Wunderground v.1.15,2013-01-23 20:39:00,
2013-01-23 15:40:00,74.0,56.3,30.20,NW,324,3.0,7.0,54,0.00,,,0.00,Wunderground v.1.15,2013-01-23 20:40:00,
2013-01-23 15:43:00,73.8,56.1,30.21,NE,48,5.0,11.0,54,0.00,,,0.00,Wunderground v.1.15,2013-01-23 20:43:00,
2013-01-23 15:44:00,73.9,56.7,30.21,NE,42,5.0,11.0,55,0.00,,,0.00,Wunderground v.1.15,2013-01-23 20:44:00,
2013-01-23 15:45:00,73.9,56.7,30.21,NNE,29,4.0,11.0,55,0.00,,,0.00,Wunderground v.1.15,2013-01-23 20:45:00,
2013-01-23 15:48:00,73.9,57.2,30.21,NE,56,4.0,11.0,56,0.00,,,0.00,Wunderground v.1.15,2013-01-23 20:48:00,
2013-01-23 15:49:00,73.8,56.1,30.21,NNE,15,5.0,11.0,54,0.00,,,0.00,Wunderground v.1.15,2013-01-23 20:49:00,
2013-01-23 15:50:00,73.8,56.6,30.21,ENE,73,4.0,4.0,55,0.00,,,0.00,Wunderground v.1.15,2013-01-23 20:50:00,
2013-01-23 15:53:00,73.8,56.1,30.21,North,2,2.0,6.0,54,0.00,,,0.00,Wunderground v.1.15,2013-01-23 20:53:00,
2013-01-23 15:54:00,73.8,56.6,30.21,NNE,20,3.0,7.0,55,0.00,,,0.00,Wunderground v.1.15,2013-01-23 20:54:00,
2013-01-23 15:55:00,73.9,56.7,30.21,NE,41,3.0,7.0,55,0.00,,,0.00,Wunderground v.1.15,2013-01-23 20:55:00,
2013-01-23 15:58:00,74.0,56.3,30.21,NE,44,4.0,7.0,54,0.00,,,0.00,Wunderground v.1.15,2013-01-23 20:58:00,
2013-01-23 15:59:00,74.0,55.8,30.21,North,6,6.0,7.0,53,0.00,,,0.00,Wunderground v.1.15,2013-01-23 20:59:00,
2013-01-23 16:00:00,73.9,55.7,30.21,North,4,4.0,9.0,53,0.00,,,0.00,Wunderground v.1.15,2013-01-23 21:00:00,
2013-01-23 16:01:00,73.9,55.7,30.21,NNE,21,4.0,9.0,53,0.00,,,0.00,Wunderground v.1.15,2013-01-23 21:01:00,
2013-01-23 16:03:00,73.7,55.5,30.21,NNW,347,5.0,9.0,53,0.00,,,0.00,Wunderground v.1.15,2013-01-23 21:03:00,
2013-01-23 16:04:00,73.6,55.9,30.22,ENE,63,3.0,9.0,54,0.00,,,0.00,Wunderground v.1.15,2013-01-23 21:04:00,
2013-01-23 16:05:00,73.6,55.4,30.22,NE,35,6.0,9.0,53,0.00,,,0.00,Wunderground v.1.15,2013-01-23 21:05:00,
2013-01-23 16:06:00,73.6,55.4,30.22,NE,50,6.0,9.0,53,0.00,,,0.00,Wunderground v.1.15,2013-01-23 21:06:00,
2013-01-23 16:09:00,73.6,55.4,30.22,North,11,3.0,9.0,53,0.00,,,0.00,Wunderground v.1.15,2013-01-23 21:09:00,
2013-01-23 16:10:00,73.7,56.0,30.22,NE,55,3.0,5.0,54,0.00,,,0.00,Wunderground v.1.15,2013-01-23 21:10:00,
2013-01-23 16:11:00,73.7,55.5,30.22,NNE,21,3.0,5.0,53,0.00,,,0.00,Wunderground v.1.15,2013-01-23 21:11:00,
2013-01-23 16:14:00,73.8,55.6,30.22,NNE,12,4.0,6.0,53,0.00,,,0.00,Wunderground v.1.15,2013-01-23 21:14:00,
2013-01-23 16:15:00,73.8,55.6,30.22,North,5,2.0,9.0,53,0.00,,,0.00,Wunderground v.1.15,2013-01-23 21:15:00,
2013-01-23 16:16:00,73.7,56.0,30.22,North,2,5.0,11.0,54,0.00,,,0.00,Wunderground v.1.15,2013-01-23 21:16:00,
2013-01-23 16:19:00,73.6,56.4,30.22,NNE,17,2.0,11.0,55,0.00,,,0.00,Wunderground v.1.15,2013-01-23 21:19:00,
2013-01-23 16:20:00,73.5,56.3,30.22,NNW,331,3.0,5.0,55,0.00,,,0.00,Wunderground v.1.15,2013-01-23 21:20:00,
2013-01-23 16:22:00,73.5,56.8,30.22,North,10,2.0,6.0,56,0.00,,,0.00,Wunderground v.1.15,2013-01-23 21:22:00,
2013-01-23 16:24:00,73.4,56.7,30.22,NNE,18,4.0,7.0,56,0.00,,,0.00,Wunderground v.1.15,2013-01-23 21:24:00,
2013-01-23 16:25:00,73.4,56.7,30.22,NNE,21,3.0,7.0,56,0.00,,,0.00,Wunderground v.1.15,2013-01-23 21:25:00,
2013-01-23 16:27:00,73.4,56.7,30.22,NNW,342,3.0,8.0,56,0.00,,,0.00,Wunderground v.1.15,2013-01-23 21:27:00,
2013-01-23 16:29:00,73.3,56.2,30.22,NW,314,3.0,8.0,55,0.00,,,0.00,Wunderground v.1.15,2013-01-23 21:29:00,
2013-01-23 16:30:00,73.4,56.7,30.22,North,2,9.0,9.0,56,0.00,,,0.00,Wunderground v.1.15,2013-01-23 21:30:00,
2013-01-23 16:32:00,73.3,56.7,30.22,NE,42,3.0,10.0,56,0.00,,,0.00,Wunderground v.1.15,2013-01-23 21:32:00,
2013-01-23 16:34:00,73.3,56.2,30.22,NNE,13,3.0,10.0,55,0.00,,,0.00,Wunderground v.1.15,2013-01-23 21:34:00,
2013-01-23 16:36:00,73.3,56.2,30.22,NE,56,5.0,10.0,55,0.00,,,0.00,Wunderground v.1.15,2013-01-23 21:36:00,
2013-01-23 16:37:00,73.3,56.2,30.22,North,4,3.0,10.0,55,0.00,,,0.00,Wunderground v.1.15,2013-01-23 21:37:00,
2013-01-23 16:39:00,73.2,56.1,30.22,North,359,2.0,5.0,55,0.00,,,0.00,Wunderground v.1.15,2013-01-23 21:39:00,
2013-01-23 16:41:00,73.1,56.0,30.22,North,360,4.0,5.0,55,0.00,,,0.00,Wunderground v.1.15,2013-01-23 21:41:00,
2013-01-23 16:42:00,73.1,56.5,30.22,NNE,25,3.0,7.0,56,0.00,,,0.00,Wunderground v.1.15,2013-01-23 21:42:00,
2013-01-23 16:45:00,73.1,56.0,30.22,NNE,29,2.0,9.0,55,0.00,,,0.00,Wunderground v.1.15,2013-01-23 21:45:00,
2013-01-23 16:46:00,73.0,56.4,30.22,NNE,25,7.0,11.0,56,0.00,,,0.00,Wunderground v.1.15,2013-01-23 21:46:00,
2013-01-23 16:47:00,73.0,56.4,30.22,North,11,6.0,11.0,56,0.00,,,0.00,Wunderground v.1.15,2013-01-23 21:47:00,
2013-01-23 16:48:00,72.9,55.8,30.22,NNW,329,3.0,11.0,55,0.00,,,0.00,Wunderground v.1.15,2013-01-23 21:48:00,
2013-01-23 16:50:00,72.8,55.7,30.22,NNW,347,7.0,7.0,55,0.00,,,0.00,Wunderground v.1.15,2013-01-23 21:50:00,
2013-01-23 16:51:00,72.7,55.6,30.22,NNE,22,5.0,10.0,55,0.00,,,0.00,Wunderground v.1.15,2013-01-23 21:51:00,
2013-01-23 16:52:00,72.7,55.6,30.22,NNE,27,4.0,10.0,55,0.00,,,0.00,Wunderground v.1.15,2013-01-23 21:52:00,
2013-01-23 16:53:00,72.7,55.6,30.22,NNW,329,6.0,10.0,55,0.00,,,0.00,Wunderground v.1.15,2013-01-23 21:53:00,
2013-01-23 16:55:00,72.6,55.5,30.22,NNW,347,2.0,10.0,55,0.00,,,0.00,Wunderground v.1.15,2013-01-23 21:55:00,
2013-01-23 16:56:00,72.6,55.5,30.22,NE,51,4.0,10.0,55,0.00,,,0.00,Wunderground v.1.15,2013-01-23 21:56:00,
2013-01-23 16:57:00,72.6,55.5,30.22,ENE,77,4.0,10.0,55,0.00,,,0.00,Wunderground v.1.15,2013-01-23 21:57:00,
2013-01-23 16:58:00,72.6,55.5,30.22,ENE,67,3.0,10.0,55,0.00,,,0.00,Wunderground v.1.15,2013-01-23 21:58:00,
2013-01-23 17:00:00,72.6,55.5,30.22,NE,38,2.0,5.0,55,0.00,,,0.00,Wunderground v.1.15,2013-01-23 22:00:00,
2013-01-23 17:01:00,72.6,56.0,30.22,NE,44,2.0,5.0,56,0.00,,,0.00,Wunderground v.1.15,2013-01-23 22:01:00,
2013-01-23 17:02:00,72.6,55.5,30.22,ENE,75,7.0,7.0,55,0.00,,,0.00,Wunderground v.1.15,2013-01-23 22:02:00,
2013-01-23 17:03:00,72.6,55.5,30.22,NE,35,3.0,7.0,55,0.00,,,0.00,Wunderground v.1.15,2013-01-23 22:03:00,
2013-01-23 17:06:00,72.6,56.5,30.22,NE,56,5.0,7.0,57,0.00,,,0.00,Wunderground v.1.15,2013-01-23 22:06:00,
2013-01-23 17:08:00,72.6,56.5,30.22,NNE,24,4.0,7.0,57,0.00,,,0.00,Wunderground v.1.15,2013-01-23 22:08:00,
2013-01-23 17:11:00,72.4,56.3,30.22,ENE,70,4.0,5.0,57,0.00,,,0.00,Wunderground v.1.15,2013-01-23 22:11:00,
2013-01-23 17:13:00,72.4,56.3,30.22,North,352,2.0,7.0,57,0.00,,,0.00,Wunderground v.1.15,2013-01-23 22:13:00,
2013-01-23 17:17:00,72.2,56.6,30.22,NNW,347,1.0,9.0,58,0.00,,,0.00,Wunderground v.1.15,2013-01-23 22:17:00,
2013-01-23 17:18:00,72.2,56.1,30.22,ENE,59,4.0,9.0,57,0.00,,,0.00,Wunderground v.1.15,2013-01-23 22:18:00,
2013-01-23 17:22:00,72.1,55.5,30.22,NNE,26,5.0,9.0,56,0.00,,,0.00,Wunderground v.1.15,2013-01-23 22:22:00,
2013-01-23 17:23:00,72.1,56.0,30.22,NNE,13,3.0,9.0,57,0.00,,,0.00,Wunderground v.1.15,2013-01-23 22:23:00,
2013-01-23 17:24:00,72.0,55.9,30.22,North,352,3.0,9.0,57,0.00,,,0.00,Wunderground v.1.15,2013-01-23 22:24:00,
2013-01-23 17:27:00,71.9,56.3,30.22,NNE,16,3.0,9.0,58,0.00,,,0.00,Wunderground v.1.15,2013-01-23 22:27:00,
2013-01-23 17:28:00,71.9,56.3,30.22,ENE,58,4.0,9.0,58,0.00,,,0.00,Wunderground v.1.15,2013-01-23 22:28:00,
2013-01-23 17:29:00,71.8,56.2,30.22,NE,47,3.0,4.0,58,0.00,,,0.00,Wunderground v.1.15,2013-01-23 22:29:00,
2013-01-23 17:32:00,71.7,55.7,30.22,NNW,347,2.0,12.0,57,0.00,,,0.00,Wunderground v.1.15,2013-01-23 22:32:00,
2013-01-23 17:33:00,71.7,55.7,30.21,NE,34,2.0,12.0,57,0.00,,,0.00,Wunderground v.1.15,2013-01-23 22:33:00,
2013-01-23 17:34:00,71.5,55.9,30.22,NE,40,4.0,12.0,58,0.00,,,0.00,Wunderground v.1.15,2013-01-23 22:34:00,
2013-01-23 17:38:00,71.4,55.9,30.22,NE,43,4.0,12.0,58,0.00,,,0.00,Wunderground v.1.15,2013-01-23 22:38:00,
2013-01-23 17:39:00,71.4,55.9,30.22,NNE,19,2.0,12.0,58,0.00,,,0.00,Wunderground v.1.15,2013-01-23 22:39:00,
2013-01-23 17:43:00,71.2,56.1,30.22,NNE,17,1.0,4.0,59,0.00,,,0.00,Wunderground v.1.15,2013-01-23 22:43:00,
2013-01-23 17:44:00,71.2,56.1,30.22,NNE,23,2.0,4.0,59,0.00,,,0.00,Wunderground v.1.15,2013-01-23 22:44:00,
2013-01-23 17:45:00,71.2,56.1,30.22,NNE,29,3.0,6.0,59,0.00,,,0.00,Wunderground v.1.15,2013-01-23 22:45:00,
2013-01-23 17:48:00,71.0,55.5,30.22,East,82,3.0,7.0,58,0.00,,,0.00,Wunderground v.1.15,2013-01-23 22:48:00,
2013-01-23 17:49:00,71.0,55.5,30.22,NNW,329,5.0,7.0,58,0.00,,,0.00,Wunderground v.1.15,2013-01-23 22:49:00,
2013-01-23 17:50:00,71.0,55.9,30.22,NE,38,3.0,5.0,59,0.00,,,0.00,Wunderground v.1.15,2013-01-23 22:50:00,
2013-01-23 17:53:00,70.9,56.3,30.22,NNE,30,3.0,5.0,60,0.00,,,0.00,Wunderground v.1.15,2013-01-23 22:53:00,
2013-01-23 17:54:00,70.9,56.3,30.22,NE,50,1.0,5.0,60,0.00,,,0.00,Wunderground v.1.15,2013-01-23 22:54:00,
2013-01-23 17:56:00,70.8,56.2,30.22,NNE,23,0.0,5.0,60,0.00,,,0.00,Wunderground v.1.15,2013-01-23 22:56:00,
2013-01-23 17:58:00,70.7,55.7,30.22,East,82,2.0,5.0,59,0.00,,,0.00,Wunderground v.1.15,2013-01-23 22:58:00,
2013-01-23 17:59:00,70.7,55.7,30.22,ENE,77,3.0,6.0,59,0.00,,,0.00,Wunderground v.1.15,2013-01-23 22:59:00,
2013-01-23 18:02:00,70.6,55.6,30.22,North,352,3.0,6.0,59,0.00,,,0.00,Wunderground v.1.15,2013-01-23 23:02:00,
2013-01-23 18:03:00,70.6,55.6,30.22,NNW,333,3.0,6.0,59,0.00,,,0.00,Wunderground v.1.15,2013-01-23 23:03:00,
2013-01-23 18:04:00,70.6,55.6,30.22,NE,42,4.0,6.0,59,0.00,,,0.00,Wunderground v.1.15,2013-01-23 23:04:00,
2013-01-23 18:07:00,70.5,55.5,30.22,NE,36,7.0,9.0,59,0.00,,,0.00,Wunderground v.1.15,2013-01-23 23:07:00,
2013-01-23 18:08:00,70.4,55.4,30.22,NNW,331,3.0,9.0,59,0.00,,,0.00,Wunderground v.1.15,2013-01-23 23:08:00,
2013-01-23 18:09:00,70.4,55.4,30.22,ENE,60,4.0,9.0,59,0.00,,,0.00,Wunderground v.1.15,2013-01-23 23:09:00,
2013-01-23 18:12:00,70.4,55.4,30.22,NNW,347,2.0,10.0,59,0.00,,,0.00,Wunderground v.1.15,2013-01-23 23:12:00,
2013-01-23 18:13:00,70.4,55.4,30.22,ENE,75,5.0,10.0,59,0.00,,,0.00,Wunderground v.1.15,2013-01-23 23:13:00,
2013-01-23 18:14:00,70.3,54.8,30.22,NNE,21,2.0,10.0,58,0.00,,,0.00,Wunderground v.1.15,2013-01-23 23:14:00,
2013-01-23 18:17:00,70.3,55.3,30.22,NNW,347,5.0,10.0,59,0.00,,,0.00,Wunderground v.1.15,2013-01-23 23:17:00,
2013-01-23 18:18:00,70.3,55.3,30.22,ENE,61,3.0,10.0,59,0.00,,,0.00,Wunderground v.1.15,2013-01-23 23:18:00,
2013-01-23 18:19:00,70.3,54.8,30.22,ENE,65,2.0,4.0,58,0.00,,,0.00,Wunderground v.1.15,2013-01-23 23:19:00,
2013-01-23 18:20:00,70.3,54.8,30.22,North,352,5.0,5.0,58,0.00,,,0.00,Wunderground v.1.15,2013-01-23 23:20:00,
2013-01-23 18:22:00,70.3,55.3,30.22,NNE,33,3.0,7.0,59,0.00,,,0.00,Wunderground v.1.15,2013-01-23 23:22:00,
2013-01-23 18:24:00,70.2,55.7,30.22,NNE,15,3.0,7.0,60,0.00,,,0.00,Wunderground v.1.15,2013-01-23 23:24:00,
2013-01-23 18:25:00,70.2,55.7,30.22,NNW,347,2.0,7.0,60,0.00,,,0.00,Wunderground v.1.15,2013-01-23 23:25:00,
2013-01-23 18:27:00,70.2,55.2,30.22,North,2,4.0,7.0,59,0.00,,,0.00,Wunderground v.1.15,2013-01-23 23:27:00,
2013-01-23 18:29:00,70.1,54.6,30.22,NNE,15,6.0,6.0,58,0.00,,,0.00,Wunderground v.1.15,2013-01-23 23:29:00,
2013-01-23 18:30:00,70.1,54.6,30.22,NNE,15,1.0,6.0,58,0.00,,,0.00,Wunderground v.1.15,2013-01-23 23:30:00,
2013-01-23 18:33:00,70.1,55.1,30.22,NE,44,3.0,6.0,59,0.00,,,0.00,Wunderground v.1.15,2013-01-23 23:33:00,
2013-01-23 18:34:00,70.1,54.6,30.22,North,1,3.0,6.0,58,0.00,,,0.00,Wunderground v.1.15,2013-01-23 23:34:00,
2013-01-23 18:35:00,70.1,54.6,30.22,NNW,347,6.0,6.0,58,0.00,,,0.00,Wunderground v.1.15,2013-01-23 23:35:00,
2013-01-23 18:38:00,70.0,55.0,30.22,NE,50,2.0,6.0,59,0.00,,,0.00,Wunderground v.1.15,2013-01-23 23:38:00,
2013-01-23 18:39:00,70.0,55.0,30.22,NNE,33,6.0,6.0,59,0.00,,,0.00,Wunderground v.1.15,2013-01-23 23:39:00,
2013-01-23 18:40:00,69.9,54.9,30.22,North,2,3.0,6.0,59,0.00,,,0.00,Wunderground v.1.15,2013-01-23 23:40:00,
2013-01-23 18:43:00,69.9,55.4,30.22,North,360,3.0,6.0,60,0.00,,,0.00,Wunderground v.1.15,2013-01-23 23:43:00,
2013-01-23 18:45:00,69.9,54.9,30.22,NNW,337,2.0,6.0,59,0.00,,,0.00,Wunderground v.1.15,2013-01-23 23:45:00,
2013-01-23 18:46:00,69.9,54.9,30.22,NNW,347,4.0,6.0,59,0.00,,,0.00,Wunderground v.1.15,2013-01-23 23:46:00,
2013-01-23 18:48:00,69.8,54.8,30.22,NNE,23,6.0,6.0,59,0.00,,,0.00,Wunderground v.1.15,2013-01-23 23:48:00,
2013-01-23 18:50:00,69.8,54.8,30.22,NNE,20,2.0,5.0,59,0.00,,,0.00,Wunderground v.1.15,2013-01-23 23:50:00,
2013-01-23 18:51:00,69.8,54.8,30.22,NE,50,2.0,5.0,59,0.00,,,0.00,Wunderground v.1.15,2013-01-23 23:51:00,
2013-01-23 18:53:00,69.8,55.3,30.22,NE,41,2.0,6.0,60,0.00,,,0.00,Wunderground v.1.15,2013-01-23 23:53:00,
2013-01-23 18:55:00,69.8,55.3,30.22,NNW,342,3.0,6.0,60,0.00,,,0.00,Wunderground v.1.15,2013-01-23 23:55:00,
2013-01-23 18:56:00,69.7,54.7,30.22,NNW,347,4.0,6.0,59,0.00,,,0.00,Wunderground v.1.15,2013-01-23 23:56:00,
2013-01-23 18:59:00,69.7,54.3,30.22,NNE,20,1.0,6.0,58,0.00,,,0.00,Wunderground v.1.15,2013-01-23 23:59:00,
2013-01-23 19:00:00,69.7,54.7,30.22,NNW,347,1.0,3.0,59,0.00,,,0.00,Wunderground v.1.15,2013-01-24 00:00:00,
2013-01-23 19:01:00,69.7,54.7,30.22,NNE,23,0.0,3.0,59,0.00,,,0.00,Wunderground v.1.15,2013-01-24 00:01:00,
2013-01-23 19:04:00,69.7,54.7,30.23,North,1,2.0,5.0,59,0.00,,,0.00,Wunderground v.1.15,2013-01-24 00:04:00,
2013-01-23 19:05:00,69.6,55.1,30.22,North,352,3.0,6.0,60,0.00,,,0.00,Wunderground v.1.15,2013-01-24 00:05:00,
2013-01-23 19:06:00,69.6,55.1,30.23,ENE,63,3.0,6.0,60,0.00,,,0.00,Wunderground v.1.15,2013-01-24 00:06:00,
2013-01-23 19:09:00,69.6,54.6,30.23,NNW,334,6.0,6.0,59,0.00,,,0.00,Wunderground v.1.15,2013-01-24 00:09:00,
2013-01-23 19:10:00,69.6,54.2,30.23,North,6,2.0,5.0,58,0.00,,,0.00,Wunderground v.1.15,2013-01-24 00:10:00,
2013-01-23 19:11:00,69.6,54.2,30.23,North,7,3.0,5.0,58,0.00,,,0.00,Wunderground v.1.15,2013-01-24 00:11:00,
2013-01-23 19:14:00,69.6,54.2,30.23,NNE,20,0.0,6.0,58,0.00,,,0.00,Wunderground v.1.15,2013-01-24 00:14:00,
2013-01-23 19:16:00,69.6,54.2,30.23,North,11,3.0,6.0,58,0.00,,,0.00,Wunderground v.1.15,2013-01-24 00:16:00,
2013-01-23 19:19:00,69.6,54.6,30.23,NNE,24,4.0,6.0,59,0.00,,,0.00,Wunderground v.1.15,2013-01-24 00:19:00,
2013-01-23 19:21:00,69.6,54.6,30.24,North,357,3.0,3.0,59,0.00,,,0.00,Wunderground v.1.15,2013-01-24 00:21:00,
2013-01-23 19:24:00,69.6,55.1,30.24,NNE,19,2.0,5.0,60,0.00,,,0.00,Wunderground v.1.15,2013-01-24 00:24:00,
2013-01-23 19:26:00,69.6,55.1,30.24,NNW,337,1.0,5.0,60,0.00,,,0.00,Wunderground v.1.15,2013-01-24 00:26:00,
2013-01-23 19:29:00,69.6,55.1,30.24,NNE,23,3.0,3.0,60,0.00,,,0.00,Wunderground v.1.15,2013-01-24 00:29:00,
2013-01-23 19:31:00,69.5,55.0,30.24,NE,55,1.0,3.0,60,0.00,,,0.00,Wunderground v.1.15,2013-01-24 00:31:00,
2013-01-23 19:34:00,69.5,55.5,30.24,NE,46,3.0,4.0,61,0.00,,,0.00,Wunderground v.1.15,2013-01-24 00:34:00,
2013-01-23 19:36:00,69.5,55.5,30.24,ENE,59,2.0,5.0,61,0.00,,,0.00,Wunderground v.1.15,2013-01-24 00:36:00,
2013-01-23 19:37:00,69.5,55.5,30.24,ENE,59,1.0,5.0,61,0.00,,,0.00,Wunderground v.1.15,2013-01-24 00:37:00,
2013-01-23 19:39:00,69.4,55.4,30.24,North,360,2.0,2.0,61,0.00,,,0.00,Wunderground v.1.15,2013-01-24 00:39:00,
2013-01-23 19:41:00,69.4,55.4,30.24,NNE,13,1.0,3.0,61,0.00,,,0.00,Wunderground v.1.15,2013-01-24 00:41:00,
2013-01-23 19:42:00,69.4,55.4,30.24,North,360,0.0,3.0,61,0.00,,,0.00,Wunderground v.1.15,2013-01-24 00:42:00,
2013-01-23 19:44:00,69.4,55.8,30.24,NNE,17,1.0,3.0,62,0.00,,,0.00,Wunderground v.1.15,2013-01-24 00:44:00,
2013-01-23 19:46:00,69.4,55.4,30.24,North,352,1.0,4.0,61,0.00,,,0.00,Wunderground v.1.15,2013-01-24 00:46:00,
2013-01-23 19:47:00,69.4,55.4,30.24,North,352,3.0,4.0,61,0.00,,,0.00,Wunderground v.1.15,2013-01-24 00:47:00,
2013-01-23 19:49:00,69.4,54.9,30.24,North,11,2.0,5.0,60,0.00,,,0.00,Wunderground v.1.15,2013-01-24 00:49:00,
2013-01-23 19:51:00,69.4,54.9,30.24,NNE,25,0.0,3.0,60,0.00,,,0.00,Wunderground v.1.15,2013-01-24 00:51:00,
2013-01-23 19:52:00,69.4,54.9,30.24,ENE,66,4.0,4.0,60,0.00,,,0.00,Wunderground v.1.15,2013-01-24 00:52:00,
2013-01-23 19:54:00,69.4,54.9,30.24,NE,36,0.0,4.0,60,0.00,,,0.00,Wunderground v.1.15,2013-01-24 00:54:00,
2013-01-23 19:56:00,69.3,54.8,30.24,NE,36,0.0,4.0,60,0.00,,,0.00,Wunderground v.1.15,2013-01-24 00:56:00,
2013-01-23 19:57:00,69.3,54.8,30.24,NE,44,2.0,4.0,60,0.00,,,0.00,Wunderground v.1.15,2013-01-24 00:57:00,
2013-01-23 19:59:00,69.3,55.3,30.24,North,6,3.0,4.0,61,0.00,,,0.00,Wunderground v.1.15,2013-01-24 00:59:00,
2013-01-23 20:00:00,69.3,55.3,30.24,NE,50,2.0,3.0,61,0.00,,,0.00,Wunderground v.1.15,2013-01-24 01:00:00,
2013-01-23 20:02:00,69.3,55.3,30.24,NNE,20,3.0,5.0,61,0.00,,,0.00,Wunderground v.1.15,2013-01-24 01:02:00,
2013-01-23 20:04:00,69.4,55.8,30.24,NE,38,3.0,5.0,62,0.00,,,0.00,Wunderground v.1.15,2013-01-24 01:04:00,
2013-01-23 20:05:00,69.4,55.8,30.24,NNE,25,5.0,6.0,62,0.00,,,0.00,Wunderground v.1.15,2013-01-24 01:05:00,
2013-01-23 20:07:00,69.4,55.8,30.24,NE,38,1.0,9.0,62,0.00,,,0.00,Wunderground v.1.15,2013-01-24 01:07:00,
2013-01-23 20:10:00,69.4,55.4,30.24,North,352,2.0,3.0,61,0.00,,,0.00,Wunderground v.1.15,2013-01-24 01:10:00,
2013-01-23 20:11:00,69.4,55.4,30.24,NNE,21,3.0,4.0,61,0.00,,,0.00,Wunderground v.1.15,2013-01-24 01:11:00,
2013-01-23 20:12:00,69.4,55.8,30.24,NE,44,2.0,5.0,62,0.00,,,0.00,Wunderground v.1.15,2013-01-24 01:12:00,
2013-01-23 20:15:00,69.4,55.4,30.24,NNE,23,3.0,7.0,61,0.00,,,0.00,Wunderground v.1.15,2013-01-24 01:15:00,
2013-01-23 20:16:00,69.4,55.4,30.24,North,2,3.0,10.0,61,0.00,,,0.00,Wunderground v.1.15,2013-01-24 01:16:00,
2013-01-23 20:17:00,69.5,55.9,30.24,NNW,327,2.0,10.0,62,0.00,,,0.00,Wunderground v.1.15,2013-01-24 01:17:00,
2013-01-23 20:20:00,69.5,55.9,30.24,NNE,15,2.0,5.0,62,0.00,,,0.00,Wunderground v.1.15,2013-01-24 01:20:00,
2013-01-23 20:21:00,69.4,55.8,30.24,North,5,5.0,6.0,62,0.00,,,0.00,Wunderground v.1.15,2013-01-24 01:21:00,
2013-01-23 20:22:00,69.4,55.4,30.24,NW,325,4.0,6.0,61,0.00,,,0.00,Wunderground v.1.15,2013-01-24 01:22:00,
2013-01-23 20:23:00,69.4,55.4,30.24,North,9,2.0,6.0,61,0.00,,,0.00,Wunderground v.1.15,2013-01-24 01:23:00,
2013-01-23 20:25:00,69.4,55.4,30.24,North,359,1.0,6.0,61,0.00,,,0.00,Wunderground v.1.15,2013-01-24 01:25:00,
2013-01-23 20:26:00,69.4,55.4,30.24,NNW,347,2.0,6.0,61,0.00,,,0.00,Wunderground v.1.15,2013-01-24 01:26:00,
2013-01-23 20:28:00,69.4,55.4,30.24,NNE,24,1.0,6.0,61,0.00,,,0.00,Wunderground v.1.15,2013-01-24 01:28:00,
2013-01-23 20:31:00,69.4,55.4,30.24,NNE,22,1.0,3.0,61,0.00,,,0.00,Wunderground v.1.15,2013-01-24 01:31:00,
2013-01-23 20:33:00,69.4,55.4,30.24,NE,50,3.0,3.0,61,0.00,,,0.00,Wunderground v.1.15,2013-01-24 01:33:00,
2013-01-23 20:36:00,69.4,55.8,30.24,NE,40,3.0,5.0,62,0.00,,,0.00,Wunderground v.1.15,2013-01-24 01:36:00,
2013-01-23 20:37:00,69.4,55.8,30.24,NNE,17,2.0,5.0,62,0.00,,,0.00,Wunderground v.1.15,2013-01-24 01:37:00,
2013-01-23 20:38:00,69.3,55.7,30.24,North,6,1.0,5.0,62,0.00,,,0.00,Wunderground v.1.15,2013-01-24 01:38:00,
2013-01-23 20:41:00,69.3,55.7,30.24,North,3,0.0,3.0,62,0.00,,,0.00,Wunderground v.1.15,2013-01-24 01:41:00,
2013-01-23 20:42:00,69.3,55.7,30.24,North,3,0.0,3.0,62,0.00,,,0.00,Wunderground v.1.15,2013-01-24 01:42:00,
2013-01-23 20:43:00,69.3,55.7,30.25,NE,41,3.0,3.0,62,0.00,,,0.00,Wunderground v.1.15,2013-01-24 01:43:00,
2013-01-23 20:47:00,69.3,55.7,30.25,North,2,2.0,3.0,62,0.00,,,0.00,Wunderground v.1.15,2013-01-24 01:47:00,
2013-01-23 20:48:00,69.3,55.7,30.25,North,2,0.0,3.0,62,0.00,,,0.00,Wunderground v.1.15,2013-01-24 01:48:00,
2013-01-23 20:49:00,69.3,55.7,30.25,NNW,327,3.0,3.0,62,0.00,,,0.00,Wunderground v.1.15,2013-01-24 01:49:00,
2013-01-23 20:52:00,69.3,55.7,30.25,NW,324,2.0,4.0,62,0.00,,,0.00,Wunderground v.1.15,2013-01-24 01:52:00,
2013-01-23 20:53:00,69.3,56.2,30.25,NNW,332,2.0,4.0,63,0.00,,,0.00,Wunderground v.1.15,2013-01-24 01:53:00,
2013-01-23 20:54:00,69.3,56.2,30.25,NNW,329,4.0,5.0,63,0.00,,,0.00,Wunderground v.1.15,2013-01-24 01:54:00,
2013-01-23 20:57:00,69.2,56.9,30.25,NW,324,2.0,5.0,65,0.00,,,0.00,Wunderground v.1.15,2013-01-24 01:57:00,
2013-01-23 20:58:00,69.2,57.4,30.25,NNW,330,3.0,6.0,66,0.00,,,0.00,Wunderground v.1.15,2013-01-24 01:58:00,
2013-01-23 20:59:00,69.2,57.8,30.25,NNW,330,0.0,2.0,67,0.00,,,0.00,Wunderground v.1.15,2013-01-24 01:59:00,
2013-01-23 21:02:00,69.0,58.4,30.25,NNW,332,4.0,5.0,69,0.00,,,0.00,Wunderground v.1.15,2013-01-24 02:02:00,
2013-01-23 21:03:00,69.0,58.4,30.25,NNW,333,3.0,5.0,69,0.00,,,0.00,Wunderground v.1.15,2013-01-24 02:03:00,
2013-01-23 21:04:00,68.9,58.3,30.25,NNW,333,2.0,5.0,69,0.00,,,0.00,Wunderground v.1.15,2013-01-24 02:04:00,
2013-01-23 21:07:00,68.7,58.5,30.25,WNW,292,1.0,5.0,70,0.00,,,0.00,Wunderground v.1.15,2013-01-24 02:07:00,
2013-01-23 21:08:00,68.6,58.4,30.25,WNW,293,2.0,5.0,70,0.00,,,0.00,Wunderground v.1.15,2013-01-24 02:08:00,
2013-01-23 21:09:00,68.6,58.4,30.25,WNW,293,2.0,5.0,70,0.00,,,0.00,Wunderground v.1.15,2013-01-24 02:09:00,
2013-01-23 21:10:00,68.6,58.8,30.25,NW,308,2.0,3.0,71,0.00,,,0.00,Wunderground v.1.15,2013-01-24 02:10:00,
2013-01-23 21:13:00,68.4,59.0,30.25,NW,308,2.0,4.0,72,0.00,,,0.00,Wunderground v.1.15,2013-01-24 02:13:00,
2013-01-23 21:14:00,68.4,59.0,30.25,NNW,336,5.0,5.0,72,0.00,,,0.00,Wunderground v.1.15,2013-01-24 02:14:00,
2013-01-23 21:15:00,68.3,58.9,30.25,NW,311,4.0,5.0,72,0.00,,,0.00,Wunderground v.1.15,2013-01-24 02:15:00,
2013-01-23 21:18:00,68.2,59.2,30.25,WNW,297,3.0,5.0,73,0.00,,,0.00,Wunderground v.1.15,2013-01-24 02:18:00,
2013-01-23 21:19:00,68.2,59.2,30.25,WNW,296,2.0,5.0,73,0.00,,,0.00,Wunderground v.1.15,2013-01-24 02:19:00,
2013-01-23 21:20:00,68.1,59.1,30.25,WNW,300,2.0,6.0,73,0.00,,,0.00,Wunderground v.1.15,2013-01-24 02:20:00,
2013-01-23 21:23:00,67.9,58.9,30.25,WNW,294,3.0,6.0,73,0.00,,,0.00,Wunderground v.1.15,2013-01-24 02:23:00,
2013-01-23 21:24:00,67.9,59.3,30.25,WNW,287,4.0,6.0,74,0.00,,,0.00,Wunderground v.1.15,2013-01-24 02:24:00,
2013-01-23 21:25:00,67.9,59.3,30.25,WNW,297,2.0,6.0,74,0.00,,,0.00,Wunderground v.1.15,2013-01-24 02:25:00,
2013-01-23 21:28:00,67.7,59.1,30.25,WNW,297,4.0,6.0,74,0.00,,,0.00,Wunderground v.1.15,2013-01-24 02:28:00,
2013-01-23 21:29:00,67.7,59.1,30.26,WNW,302,1.0,6.0,74,0.00,,,0.00,Wunderground v.1.15,2013-01-24 02:29:00,
2013-01-23 21:30:00,67.6,59.0,30.25,WNW,298,4.0,6.0,74,0.00,,,0.00,Wunderground v.1.15,2013-01-24 02:30:00,
2013-01-23 21:33:00,67.4,58.8,30.26,NW,304,3.0,6.0,74,0.00,,,0.00,Wunderground v.1.15,2013-01-24 02:33:00,
2013-01-23 21:34:00,67.4,58.8,30.26,WNW,301,2.0,6.0,74,0.00,,,0.00,Wunderground v.1.15,2013-01-24 02:34:00,
2013-01-23 21:35:00,67.4,59.2,30.26,WNW,301,1.0,6.0,75,0.00,,,0.00,Wunderground v.1.15,2013-01-24 02:35:00,
2013-01-23 21:39:00,67.2,59.0,30.26,NNW,338,3.0,6.0,75,0.00,,,0.00,Wunderground v.1.15,2013-01-24 02:39:00,
2013-01-23 21:40:00,67.1,58.9,30.26,NNW,331,3.0,3.0,75,0.00,,,0.00,Wunderground v.1.15,2013-01-24 02:40:00,
2013-01-23 21:44:00,67.0,58.8,30.26,NW,318,3.0,6.0,75,0.00,,,0.00,Wunderground v.1.15,2013-01-24 02:44:00,
2013-01-23 21:46:00,66.9,58.7,30.26,NW,312,2.0,6.0,75,0.00,,,0.00,Wunderground v.1.15,2013-01-24 02:46:00,
2013-01-23 21:49:00,66.8,58.6,30.26,WNW,302,4.0,6.0,75,0.00,,,0.00,Wunderground v.1.15,2013-01-24 02:49:00,
2013-01-23 21:51:00,66.7,58.5,30.26,NW,321,2.0,5.0,75,0.00,,,0.00,Wunderground v.1.15,2013-01-24 02:51:00,
2013-01-23 21:54:00,66.5,58.3,30.26,NNW,336,0.0,5.0,75,0.00,,,0.00,Wunderground v.1.15,2013-01-24 02:54:00,
2013-01-23 21:56:00,66.5,58.3,30.26,NNW,336,1.0,5.0,75,0.00,,,0.00,Wunderground v.1.15,2013-01-24 02:56:00,
2013-01-23 21:59:00,66.3,58.5,30.26,NW,304,1.0,5.0,76,0.00,,,0.00,Wunderground v.1.15,2013-01-24 02:59:00,
2013-01-23 22:01:00,66.2,58.4,30.26,WNW,298,3.0,4.0,76,0.00,,,0.00,Wunderground v.1.15,2013-01-24 03:01:00,
2013-01-23 22:04:00,66.1,58.3,30.26,NW,308,1.0,4.0,76,0.00,,,0.00,Wunderground v.1.15,2013-01-24 03:04:00,
2013-01-23 22:06:00,66.0,58.2,30.26,WNW,287,2.0,4.0,76,0.00,,,0.00,Wunderground v.1.15,2013-01-24 03:06:00,
2013-01-23 22:09:00,65.9,58.1,30.26,WNW,289,0.0,4.0,76,0.00,,,0.00,Wunderground v.1.15,2013-01-24 03:09:00,
2013-01-23 22:12:00,65.8,58.4,30.26,NW,305,2.0,4.0,77,0.00,,,0.00,Wunderground v.1.15,2013-01-24 03:12:00,
2013-01-23 22:14:00,65.8,58.4,30.26,NW,307,1.0,4.0,77,0.00,,,0.00,Wunderground v.1.15,2013-01-24 03:14:00,
2013-01-23 22:17:00,65.8,58.7,30.26,NW,320,4.0,4.0,78,0.00,,,0.00,Wunderground v.1.15,2013-01-24 03:17:00,
2013-01-23 22:19:00,65.9,58.8,30.26,WNW,293,2.0,4.0,78,0.00,,,0.00,Wunderground v.1.15,2013-01-24 03:19:00,
2013-01-23 22:20:00,65.9,58.8,30.26,WNW,293,2.0,4.0,78,0.00,,,0.00,Wunderground v.1.15,2013-01-24 03:20:00,
2013-01-23 22:22:00,66.0,58.9,30.25,NW,312,1.0,4.0,78,0.00,,,0.00,Wunderground v.1.15,2013-01-24 03:22:00,
2013-01-23 22:25:00,66.0,58.6,30.25,NW,312,0.0,4.0,77,0.00,,,0.00,Wunderground v.1.15,2013-01-24 03:25:00,
2013-01-23 22:27:00,66.1,59.0,30.25,NW,310,1.0,4.0,78,0.00,,,0.00,Wunderground v.1.15,2013-01-24 03:27:00,
2013-01-23 22:30:00,66.2,58.8,30.25,WNW,297,3.0,5.0,77,0.00,,,0.00,Wunderground v.1.15,2013-01-24 03:30:00,
2013-01-23 22:31:00,66.2,58.8,30.25,NW,305,1.0,5.0,77,0.00,,,0.00,Wunderground v.1.15,2013-01-24 03:31:00,
2013-01-23 22:32:00,66.2,58.8,30.25,WNW,303,1.0,5.0,77,0.00,,,0.00,Wunderground v.1.15,2013-01-24 03:32:00,
2013-01-23 22:35:00,66.2,58.4,30.25,WNW,301,1.0,5.0,76,0.00,,,0.00,Wunderground v.1.15,2013-01-24 03:35:00,
2013-01-23 22:36:00,66.2,58.4,30.25,WNW,294,3.0,5.0,76,0.00,,,0.00,Wunderground v.1.15,2013-01-24 03:36:00,
2013-01-23 22:37:00,66.2,58.4,30.25,NNW,332,1.0,5.0,76,0.00,,,0.00,Wunderground v.1.15,2013-01-24 03:37:00,
2013-01-23 22:40:00,66.1,58.3,30.25,WNW,292,4.0,4.0,76,0.00,,,0.00,Wunderground v.1.15,2013-01-24 03:40:00,
2013-01-23 22:41:00,66.1,58.3,30.25,WNW,292,2.0,4.0,76,0.00,,,0.00,Wunderground v.1.15,2013-01-24 03:41:00,
2013-01-23 22:42:00,66.1,58.3,30.25,WNW,294,0.0,4.0,76,0.00,,,0.00,Wunderground v.1.15,2013-01-24 03:42:00,
2013-01-23 22:45:00,66.1,58.3,30.25,WNW,289,1.0,4.0,76,0.00,,,0.00,Wunderground v.1.15,2013-01-24 03:45:00,
2013-01-23 22:46:00,66.1,58.3,30.25,WNW,289,1.0,4.0,76,0.00,,,0.00,Wunderground v.1.15,2013-01-24 03:46:00,
2013-01-23 22:47:00,66.1,58.3,30.25,WNW,289,0.0,4.0,76,0.00,,,0.00,Wunderground v.1.15,2013-01-24 03:47:00,
2013-01-23 22:50:00,66.0,58.2,30.25,WNW,290,1.0,3.0,76,0.00,,,0.00,Wunderground v.1.15,2013-01-24 03:50:00,
2013-01-23 22:51:00,65.9,58.1,30.25,WNW,290,2.0,3.0,76,0.00,,,0.00,Wunderground v.1.15,2013-01-24 03:51:00,
2013-01-23 22:53:00,65.9,58.1,30.25,WNW,287,4.0,4.0,76,0.00,,,0.00,Wunderground v.1.15,2013-01-24 03:53:00,
2013-01-23 22:55:00,65.7,57.9,30.25,WNW,287,0.0,4.0,76,0.00,,,0.00,Wunderground v.1.15,2013-01-24 03:55:00,
2013-01-23 22:56:00,65.7,57.9,30.25,WNW,288,0.0,4.0,76,0.00,,,0.00,Wunderground v.1.15,2013-01-24 03:56:00,
2013-01-23 22:57:00,65.7,57.9,30.25,WNW,288,0.0,4.0,76,0.00,,,0.00,Wunderground v.1.15,2013-01-24 03:57:00,
2013-01-23 22:58:00,65.6,57.8,30.25,NW,305,4.0,4.0,76,0.00,,,0.00,Wunderground v.1.15,2013-01-24 03:58:00,
2013-01-23 23:01:00,65.5,58.1,30.25,NW,318,1.0,3.0,77,0.00,,,0.00,Wunderground v.1.15,2013-01-24 04:01:00,
2013-01-23 23:02:00,65.5,57.7,30.25,NW,316,0.0,3.0,76,0.00,,,0.00,Wunderground v.1.15,2013-01-24 04:02:00,
2013-01-23 23:03:00,65.4,57.6,30.25,NW,316,0.0,3.0,76,0.00,,,0.00,Wunderground v.1.15,2013-01-24 04:03:00,
2013-01-23 23:06:00,65.3,57.9,30.25,WNW,294,2.0,3.0,77,0.00,,,0.00,Wunderground v.1.15,2013-01-24 04:06:00,
2013-01-23 23:07:00,65.2,57.8,30.25,WNW,294,0.0,3.0,77,0.00,,,0.00,Wunderground v.1.15,2013-01-24 04:07:00,
2013-01-23 23:08:00,65.2,57.8,30.25,WNW,294,1.0,3.0,77,0.00,,,0.00,Wunderground v.1.15,2013-01-24 04:08:00,
2013-01-23 23:11:00,65.1,57.7,30.25,WNW,296,0.0,3.0,77,0.00,,,0.00,Wunderground v.1.15,2013-01-24 04:11:00,
2013-01-23 23:12:00,65.1,57.7,30.25,WNW,296,0.0,3.0,77,0.00,,,0.00,Wunderground v.1.15,2013-01-24 04:12:00,
2013-01-23 23:14:00,65.0,58.0,30.25,WNW,296,0.0,3.0,78,0.00,,,0.00,Wunderground v.1.15,2013-01-24 04:14:00,
2013-01-23 23:16:00,65.0,58.0,30.24,WNW,296,1.0,3.0,78,0.00,,,0.00,Wunderground v.1.15,2013-01-24 04:16:00,
2013-01-23 23:17:00,65.0,58.0,30.25,WNW,296,0.0,3.0,78,0.00,,,0.00,Wunderground v.1.15,2013-01-24 04:17:00,
2013-01-23 23:18:00,65.0,58.0,30.25,WNW,296,0.0,3.0,78,0.00,,,0.00,Wunderground v.1.15,2013-01-24 04:18:00,
2013-01-23 23:19:00,65.0,58.0,30.25,WNW,296,0.0,3.0,78,0.00,,,0.00,Wunderground v.1.15,2013-01-24 04:19:00,
2013-01-23 23:22:00,64.9,57.9,30.25,WNW,296,3.0,3.0,78,0.00,,,0.00,Wunderground v.1.15,2013-01-24 04:22:00,
2013-01-23 23:23:00,64.9,57.9,30.25,WNW,296,0.0,3.0,78,0.00,,,0.00,Wunderground v.1.15,2013-01-24 04:23:00,
2013-01-23 23:24:00,64.9,57.9,30.25,WNW,296,0.0,3.0,78,0.00,,,0.00,Wunderground v.1.15,2013-01-24 04:24:00,
2013-01-23 23:27:00,64.8,57.8,30.24,WNW,296,1.0,3.0,78,0.00,,,0.00,Wunderground v.1.15,2013-01-24 04:27:00,
2013-01-23 23:28:00,64.8,57.8,30.24,WNW,296,1.0,3.0,78,0.00,,,0.00,Wunderground v.1.15,2013-01-24 04:28:00,
2013-01-23 23:29:00,64.8,57.8,30.24,WNW,296,0.0,3.0,78,0.00,,,0.00,Wunderground v.1.15,2013-01-24 04:29:00,
2013-01-23 23:32:00,64.7,57.7,30.24,WNW,296,1.0,2.0,78,0.00,,,0.00,Wunderground v.1.15,2013-01-24 04:32:00,
2013-01-23 23:33:00,64.7,57.7,30.25,WNW,296,1.0,2.0,78,0.00,,,0.00,Wunderground v.1.15,2013-01-24 04:33:00,
2013-01-23 23:34:00,64.7,57.7,30.24,WNW,296,0.0,2.0,78,0.00,,,0.00,Wunderground v.1.15,2013-01-24 04:34:00,
2013-01-23 23:37:00,64.6,57.6,30.25,WNW,296,0.0,2.0,78,0.00,,,0.00,Wunderground v.1.15,2013-01-24 04:37:00,
2013-01-23 23:38:00,64.6,57.6,30.24,WNW,296,2.0,2.0,78,0.00,,,0.00,Wunderground v.1.15,2013-01-24 04:38:00,
2013-01-23 23:39:00,64.6,57.9,30.24,WNW,296,0.0,0.0,79,0.00,,,0.00,Wunderground v.1.15,2013-01-24 04:39:00,
2013-01-23 23:42:00,64.5,57.8,30.24,WNW,296,0.0,2.0,79,0.00,,,0.00,Wunderground v.1.15,2013-01-24 04:42:00,
2013-01-23 23:43:00,64.5,57.8,30.24,WNW,296,0.0,2.0,79,0.00,,,0.00,Wunderground v.1.15,2013-01-24 04:43:00,
2013-01-23 23:44:00,64.5,57.8,30.24,WNW,296,1.0,2.0,79,0.00,,,0.00,Wunderground v.1.15,2013-01-24 04:44:00,
2013-01-23 23:47:00,64.4,57.7,30.24,WNW,295,2.0,3.0,79,0.00,,,0.00,Wunderground v.1.15,2013-01-24 04:47:00,
2013-01-23 23:48:00,64.4,57.7,30.24,WNW,294,2.0,3.0,79,0.00,,,0.00,Wunderground v.1.15,2013-01-24 04:48:00,
2013-01-23 23:49:00,64.4,57.7,30.24,WNW,295,2.0,2.0,79,0.00,,,0.00,Wunderground v.1.15,2013-01-24 04:49:00,
2013-01-23 23:50:00,64.3,57.6,30.24,WNW,295,1.0,2.0,79,0.00,,,0.00,Wunderground v.1.15,2013-01-24 04:50:00,
2013-01-23 23:53:00,64.3,57.6,30.24,WNW,294,1.0,3.0,79,0.00,,,0.00,Wunderground v.1.15,2013-01-24 04:53:00,
2013-01-23 23:55:00,64.2,57.5,30.24,WNW,294,2.0,3.0,79,0.00,,,0.00,Wunderground v.1.15,2013-01-24 04:55:00,
2013-01-23 23:58:00,64.1,57.5,30.24,WNW,294,1.0,3.0,79,0.00,,,0.00,Wunderground v.1.15,2013-01-24 04:58:00,